ECMWFFLT2_925_thetae_060.txt.gz
Theta_e
343 341 340 340 339 338 338 339 339 338 340 339 340 341 341 340 339 339 338 339 338 338 338 336 335 335 334 334 335 336 337 338 337 337 336 335 335 334 333 333 333 334 333 332 332 330 331 333 333 334 335 335 334 334 332 333 334 332 331 330 328 328
343 342 341 341 338 338 337 337 338 339 340 339 339 340 340 339 338 338 338 338 339 340 339 337 337 335 334 335 335 336 337 337 337 336 335 334 334 333 332 332 332 334 333 333 332 331 332 333 334 334 335 336 335 335 334 333 333 332 331 327 327 329
343 343 342 341 339 337 336 338 338 339 340 339 340 340 339 339 338 338 338 338 339 340 339 338 337 336 335 335 334 335 336 336 335 335 334 334 334 333 332 331 331 333 334 333 334 334 333 332 334 335 336 337 336 334 333 333 332 332 330 324 325 329
343 343 342 342 340 337 337 339 340 340 340 340 340 340 340 340 339 339 339 338 338 338 337 337 338 336 336 335 334 335 336 335 334 334 333 334 333 333 331 331 331 332 334 335 337 338 336 335 334 335 337 336 335 334 333 333 332 331 329 324 323 327
342 343 341 341 340 336 337 340 340 340 339 339 340 340 341 340 340 339 338 337 337 336 336 336 337 337 337 336 335 336 336 336 334 333 333 333 332 332 331 331 330 331 333 335 338 338 338 338 336 335 338 337 335 334 333 333 333 332 330 328 326 326
343 343 342 341 339 337 339 340 340 341 339 339 340 340 340 339 339 337 336 337 337 336 336 336 337 337 337 337 336 336 337 337 336 333 333 334 332 332 331 331 331 330 332 334 336 338 337 338 336 337 339 337 335 334 333 334 334 333 330 329 329 328
344 342 341 340 340 339 340 340 340 341 340 340 340 340 340 339 337 335 335 336 336 334 335 336 337 337 337 337 336 337 337 336 336 333 334 335 333 332 331 332 332 330 332 333 333 335 337 337 337 337 338 336 336 333 332 334 334 333 332 329 330 330
343 340 340 340 338 339 339 340 340 340 340 340 340 340 339 338 337 335 335 336 335 335 334 335 336 336 335 335 335 336 335 334 334 333 333 335 334 333 332 334 333 331 333 333 332 335 336 337 337 337 337 335 335 333 332 334 334 333 333 330 330 330
342 340 340 339 338 338 339 340 339 339 340 341 341 341 339 336 336 336 335 336 335 334 333 334 335 335 334 334 335 334 334 334 334 333 333 334 334 333 334 334 334 333 333 333 333 335 335 335 335 336 336 334 333 333 331 333 334 333 333 331 328 325
340 341 340 339 339 339 340 340 338 339 340 341 342 340 337 337 337 336 335 336 335 333 333 334 335 336 335 335 336 335 335 335 335 334 334 334 334 334 335 335 334 334 333 333 332 332 332 333 334 335 335 333 332 333 332 333 334 334 333 331 326 322
341 341 341 340 340 340 341 340 338 340 341 341 341 339 337 337 338 336 335 336 335 333 333 334 335 335 336 337 336 336 335 336 335 335 335 335 335 334 335 334 333 333 332 331 331 331 332 332 333 334 334 333 331 333 333 333 333 333 334 331 326 325
342 341 341 340 340 341 341 341 340 341 341 340 339 338 337 337 337 337 336 336 335 334 333 333 334 334 335 336 335 335 335 336 336 335 336 335 335 335 335 335 334 333 333 332 332 332 332 333 333 333 334 333 332 334 333 332 333 332 333 331 329 327
342 341 341 340 340 341 340 341 341 341 341 339 338 337 336 337 337 337 336 336 336 335 334 332 334 333 334 335 336 337 336 337 337 337 337 337 337 337 336 336 335 335 336 335 334 333 333 333 332 333 334 332 331 333 332 332 333 332 332 332 331 329
342 341 340 339 340 341 339 340 340 340 339 338 339 339 337 337 337 336 335 336 336 337 335 334 334 333 335 337 337 338 338 338 337 337 338 338 338 337 336 336 335 336 336 335 333 332 332 333 332 332 333 332 332 333 332 332 332 332 331 331 332 330
342 341 340 340 341 340 339 340 340 340 340 338 339 339 337 337 337 336 336 337 336 336 334 334 335 335 336 337 337 338 338 337 337 337 337 337 337 336 335 335 334 335 335 333 332 331 332 332 332 333 333 333 334 334 334 332 331 332 332 331 331 330
343 342 340 340 340 339 339 339 339 339 340 339 338 337 337 336 337 336 337 337 336 335 334 335 336 337 337 337 337 336 336 337 337 336 336 336 336 336 335 335 335 335 335 334 332 332 332 332 332 334 335 335 335 334 334 331 331 332 331 331 331 330
342 342 341 340 340 339 338 338 339 339 339 339 337 336 336 336 337 336 336 337 336 335 335 336 337 337 337 336 337 336 335 337 337 335 337 337 336 336 335 335 336 334 334 334 332 331 332 332 333 334 334 335 335 334 333 331 331 331 331 331 330 330
342 342 341 340 339 339 338 336 337 337 338 337 336 337 336 336 336 335 336 336 336 335 335 337 337 336 337 336 336 335 335 336 336 335 337 336 336 335 335 336 336 335 334 334 332 331 332 332 333 334 334 334 334 333 332 331 330 330 331 331 330 330
341 341 340 340 339 339 338 335 335 336 336 336 336 336 336 336 335 334 335 335 337 337 336 337 337 337 337 336 335 334 335 336 336 337 337 336 336 335 335 336 336 336 335 334 333 331 332 333 332 333 333 333 332 332 331 331 330 331 330 331 331 330
341 340 339 340 339 338 336 335 336 336 337 336 337 336 336 335 334 334 335 335 337 338 337 336 337 337 337 336 335 335 336 336 337 337 336 335 336 335 336 337 336 336 335 333 333 332 332 332 332 332 333 332 331 331 330 330 330 330 330 331 331 330
339 339 339 340 340 336 334 336 337 336 336 337 337 336 336 336 334 334 335 335 336 337 336 335 335 337 337 336 335 337 337 336 337 336 336 336 336 336 336 336 336 336 335 333 333 333 332 332 332 333 333 332 332 331 331 331 330 330 330 330 330 329
338 339 339 339 339 337 335 337 337 336 336 337 337 336 336 335 335 335 334 334 336 336 335 334 335 336 337 337 336 337 337 336 336 336 336 336 336 337 336 336 336 335 335 333 333 333 332 332 333 333 333 332 331 331 331 330 330 330 330 330 330 329
336 337 337 338 338 338 337 338 337 336 336 336 336 336 335 335 335 335 334 334 335 335 334 335 335 336 336 336 337 337 336 336 336 336 336 336 336 336 335 336 336 334 334 333 333 333 333 333 333 333 333 332 332 331 331 330 329 330 330 329 329 329
335 335 336 337 337 338 338 337 336 335 337 336 336 336 336 336 336 335 334 335 335 334 334 335 336 337 336 336 337 336 335 335 336 336 336 335 336 336 335 336 335 334 334 334 333 333 334 334 333 332 333 333 333 331 331 330 329 330 330 329 329 328
334 333 335 336 337 337 337 337 335 335 337 337 337 337 336 337 336 334 334 334 334 334 334 335 336 336 337 337 337 336 335 335 335 335 335 334 335 336 335 335 335 334 334 334 333 333 334 333 332 333 332 333 334 334 333 330 329 330 329 329 329 329
334 334 335 336 337 336 336 336 334 334 336 337 337 337 336 336 335 333 334 334 334 334 335 335 336 335 335 336 336 335 335 335 334 335 335 334 335 335 334 334 335 335 334 333 332 333 334 332 331 332 331 332 333 333 332 331 330 330 329 329 329 329
334 335 335 336 337 336 336 336 335 333 334 336 336 337 335 335 334 334 334 334 333 334 334 335 335 334 333 335 336 335 335 335 334 335 334 334 334 334 334 334 334 334 334 333 332 333 333 332 332 331 331 332 331 330 331 331 331 330 329 329 328 328
335 334 334 335 336 335 336 335 334 332 332 335 336 336 335 334 334 334 333 333 332 333 334 334 334 333 332 335 336 335 335 336 335 335 335 333 334 334 333 333 334 334 334 334 333 332 332 333 333 332 331 333 332 331 331 331 331 330 330 330 328 328
334 334 334 334 334 334 334 334 334 332 333 335 336 336 335 334 333 333 332 332 332 333 333 333 332 332 332 334 336 335 336 336 335 335 334 334 335 334 333 333 333 333 333 333 333 333 332 332 333 332 332 332 331 332 331 332 332 331 331 330 328 328
334 334 333 333 334 333 334 334 334 333 334 335 335 335 335 334 333 333 332 332 332 331 332 332 332 332 333 333 334 335 335 335 334 334 334 334 334 334 334 333 333 334 334 334 333 334 333 332 331 331 332 331 329 331 332 331 332 331 331 330 329 328
333 333 334 335 334 334 335 334 333 334 334 333 334 334 333 332 332 332 332 332 331 331 332 332 332 332 333 333 333 333 334 333 333 333 333 333 333 333 334 334 333 333 334 333 333 333 333 332 331 331 331 331 330 331 331 330 331 332 331 331 329 328
332 332 335 335 333 333 334 331 331 334 334 333 334 334 333 333 332 331 332 332 331 331 332 332 332 332 333 334 333 333 333 333 333 333 332 332 334 334 334 334 335 334 333 332 332 332 332 332 332 331 331 331 331 332 331 330 330 330 331 330 329 328
331 333 335 334 332 332 330 325 326 333 334 333 334 334 333 334 333 332 332 333 332 331 331 331 332 332 333 334 333 333 333 333 333 332 332 333 334 334 334 334 335 334 333 332 332 331 331 332 331 332 332 331 332 332 331 330 329 331 331 329 329 328
332 334 334 334 333 331 330 330 327 328 333 334 334 334 334 334 333 333 334 332 331 331 331 331 332 333 334 334 333 334 333 332 332 332 333 335 334 333 334 334 334 333 334 334 332 331 332 332 332 333 332 331 332 332 331 330 329 330 331 328 329 329
332 333 333 334 334 332 332 333 333 331 333 334 334 333 334 332 331 333 333 331 330 330 331 331 332 333 334 333 333 332 332 331 331 331 333 334 334 333 334 334 333 333 333 333 332 332 332 332 333 333 332 332 332 331 331 330 328 330 330 329 329 328
333 333 332 333 333 333 333 334 334 335 334 334 333 333 333 331 331 331 330 330 330 330 330 331 332 333 333 332 331 331 331 331 331 331 332 333 333 333 333 332 333 333 332 332 332 332 332 332 333 333 331 331 332 331 330 330 329 329 330 330 329 327
333 334 333 332 333 333 333 334 335 335 334 334 333 333 332 330 330 329 329 329 329 329 330 331 331 332 332 332 331 331 330 330 331 330 330 331 331 331 333 332 332 332 331 332 333 332 332 333 333 333 331 330 331 331 331 330 329 328 330 331 330 328

ECMWFFLT2_925_thetae_063.txt.gz
Theta_e
341 340 341 341 341 341 340 339 338 337 336 337 339 339 339 338 338 339 339 339 338 337 337 336 335 335 335 336 337 338 338 337 337 336 335 334 334 333 333 333 332 331 328 327 330 332 333 333 333 334 334 335 334 332 332 332 331 328 324 325 327 328
340 340 340 341 340 339 339 339 337 337 338 339 340 340 339 338 339 339 339 338 337 336 336 335 335 335 336 335 336 338 337 337 336 336 334 334 334 333 333 333 333 332 330 330 331 332 332 333 334 335 334 335 335 333 331 332 330 326 324 326 328 328
340 340 340 340 339 338 338 338 337 337 339 339 340 341 340 339 340 340 340 338 337 336 336 335 334 335 336 335 335 337 337 336 336 335 334 334 334 333 332 333 333 333 332 331 331 332 333 335 335 334 335 335 334 333 331 331 328 324 325 328 329 328
340 341 339 337 337 337 338 338 338 339 339 340 341 341 340 340 340 340 340 339 338 337 336 335 336 335 335 334 335 336 337 336 335 335 334 334 334 333 332 332 333 333 332 332 332 333 333 335 335 334 336 335 333 332 331 330 327 324 324 327 328 327
339 339 336 335 337 337 338 338 339 340 339 339 340 341 340 340 339 339 339 339 339 339 337 337 337 336 335 334 335 336 336 335 335 334 334 334 333 333 332 331 332 333 334 335 336 336 335 335 334 336 338 335 332 332 331 330 328 326 324 324 326 326
338 338 335 335 336 336 337 338 339 339 339 339 340 340 339 339 339 338 338 338 339 339 338 338 338 336 335 334 334 335 335 334 333 333 333 333 333 333 332 331 331 332 334 336 337 338 338 336 334 336 338 335 332 332 332 331 329 328 326 324 326 328
341 340 338 336 335 336 337 338 339 339 338 338 339 339 340 339 338 338 337 337 338 338 337 337 337 336 335 334 333 334 335 334 332 331 332 332 331 332 332 331 331 331 332 334 335 338 338 336 335 336 338 335 333 333 333 332 330 328 326 323 324 327
342 341 340 338 335 336 339 339 340 339 338 339 340 339 340 340 339 338 337 337 337 337 336 337 337 336 335 335 335 335 335 334 332 330 330 331 331 331 331 331 331 330 331 332 333 336 337 336 336 336 337 335 333 333 333 332 332 329 326 323 320 322
342 340 341 339 336 338 340 341 341 340 339 339 340 339 339 339 339 339 338 337 337 336 336 336 336 336 336 335 336 335 334 333 333 331 331 333 332 332 331 331 332 331 332 333 333 335 336 335 335 335 337 336 333 333 334 333 333 331 327 324 318 316
341 340 340 338 337 339 339 339 340 340 339 339 339 340 339 339 338 337 336 337 337 335 335 336 336 336 336 336 336 335 335 334 334 333 332 333 333 333 333 333 333 332 333 333 332 335 336 334 333 335 337 335 332 333 333 333 333 332 329 324 318 316
341 341 340 338 339 339 339 338 339 340 339 339 339 339 339 339 338 335 335 336 336 334 334 335 336 337 336 336 336 335 334 334 334 334 333 334 334 334 335 334 334 334 333 333 331 332 333 333 334 335 336 333 332 333 333 333 332 333 331 325 321 322
342 341 340 339 339 339 339 338 339 339 339 339 339 339 339 338 337 335 335 336 335 334 333 334 336 337 336 336 336 334 334 334 334 334 334 335 335 334 335 334 334 334 333 331 330 332 332 333 335 335 334 332 332 333 333 333 332 333 331 325 323 326
342 340 340 339 338 339 338 338 339 339 339 339 338 339 339 337 335 335 335 335 335 333 332 334 335 336 336 336 336 334 335 335 334 335 335 335 335 334 334 334 334 333 333 331 331 333 334 335 334 334 333 332 332 333 333 332 332 332 330 326 325 327
341 340 340 339 338 338 337 337 337 338 339 339 339 339 337 336 335 335 335 335 335 333 332 333 334 335 336 336 335 334 335 335 335 336 335 335 335 335 335 335 334 333 334 334 333 333 334 335 334 334 333 331 331 332 332 331 331 332 331 328 327 328
340 340 339 339 339 338 337 336 336 338 339 339 340 338 336 336 337 336 336 336 335 333 332 333 334 334 335 336 336 335 336 336 336 336 336 336 337 336 335 335 334 334 334 334 333 332 333 335 333 333 332 330 331 331 331 332 331 332 331 329 328 329
340 340 339 340 339 337 337 337 337 339 339 338 338 337 335 336 336 336 335 336 336 335 333 333 333 333 333 336 337 337 337 337 337 337 337 337 336 336 335 335 335 334 333 333 331 332 334 334 333 333 332 331 331 331 331 332 332 331 331 330 329 329
340 339 338 340 338 336 337 337 338 339 339 338 337 336 336 336 336 336 335 336 336 336 335 333 333 334 334 335 336 336 337 337 337 337 337 336 336 335 335 334 334 333 333 333 332 332 333 334 334 334 333 332 332 331 331 332 332 331 331 330 330 330
339 339 339 338 336 336 338 337 338 339 339 339 338 337 336 336 336 335 336 336 336 335 335 334 334 334 334 335 335 334 336 337 336 337 336 335 335 335 334 334 333 332 331 332 332 331 332 333 334 335 334 332 331 331 330 331 332 331 330 330 330 330
339 340 339 337 335 337 338 337 338 339 339 339 338 337 337 336 336 336 336 337 336 335 335 334 334 334 335 335 335 333 335 336 335 335 336 336 335 335 335 335 334 333 332 332 331 331 332 334 334 334 333 331 330 330 330 331 331 331 330 330 330 329
339 339 337 335 336 337 337 337 338 337 337 337 337 336 336 336 336 336 336 336 336 335 334 334 334 334 334 334 334 333 335 337 334 334 336 336 335 335 335 335 335 334 333 331 331 331 332 333 333 332 331 330 329 330 330 330 331 330 330 329 329 329
337 335 335 336 338 337 336 336 336 336 336 336 336 336 336 335 335 335 335 336 336 335 334 334 333 333 334 334 334 333 335 336 335 334 335 335 335 335 335 336 335 333 332 331 331 332 332 332 332 331 330 330 330 330 330 330 330 330 330 330 330 329
334 335 337 338 338 337 336 336 336 336 336 336 336 336 336 335 334 334 334 334 335 335 335 334 335 335 336 336 335 335 335 336 336 336 335 335 335 335 335 336 335 333 332 332 332 332 331 332 331 331 330 330 329 329 330 330 330 330 330 330 330 329
334 336 337 337 338 337 336 336 336 336 336 336 336 335 336 335 334 334 334 335 334 334 335 335 336 336 337 337 335 335 336 336 337 336 335 336 335 336 336 336 335 333 332 332 332 331 331 332 331 330 330 331 330 329 330 330 329 330 330 330 329 329
335 337 336 337 338 337 336 336 336 336 336 337 336 336 335 335 334 334 335 335 334 334 335 335 335 336 337 337 336 336 336 337 336 335 336 336 336 336 336 335 335 334 333 333 333 332 332 332 331 330 331 332 330 329 331 330 329 329 330 329 329 329
336 338 337 337 337 336 336 336 335 336 336 336 336 335 335 335 335 335 334 334 334 335 335 335 335 336 336 336 336 336 336 336 336 335 335 336 336 336 335 335 335 334 333 333 333 333 334 333 330 330 331 332 331 331 332 330 329 329 329 329 329 329
336 337 337 337 337 337 337 336 335 335 335 336 336 335 335 335 335 335 335 333 334 335 335 334 335 336 335 335 335 335 335 335 335 335 335 335 335 335 335 335 335 334 333 333 333 334 334 333 332 331 330 331 332 332 331 329 330 330 329 328 328 329
334 336 338 337 337 337 336 336 336 335 335 336 336 336 336 336 336 335 334 334 334 334 334 335 335 336 336 335 334 334 334 334 334 335 335 334 335 335 334 334 334 334 333 332 332 333 334 333 333 332 330 330 330 329 329 329 329 329 329 329 328 328
333 336 338 337 337 337 337 336 336 336 335 336 336 337 337 336 336 335 334 334 334 334 334 335 335 336 336 335 334 334 333 333 333 335 335 334 334 335 334 333 334 334 333 332 331 332 332 332 332 331 331 331 330 329 329 329 328 328 329 329 329 328
335 336 337 337 337 337 337 336 335 335 336 336 336 336 336 336 335 334 334 334 334 333 334 334 335 335 334 334 334 333 333 333 334 334 334 334 333 334 334 333 334 334 333 332 332 332 331 330 330 330 331 331 330 329 329 329 329 327 327 329 329 329
334 335 337 337 337 337 336 336 335 334 335 335 335 335 335 335 335 334 333 334 333 333 333 334 334 333 333 333 333 333 333 334 335 335 335 334 333 334 334 333 333 334 334 333 332 331 330 330 330 330 331 332 331 330 329 329 329 328 327 327 328 328
334 335 337 337 336 337 336 336 335 334 334 334 335 335 335 335 335 334 333 333 333 332 333 333 333 332 332 332 333 333 334 334 335 335 335 334 333 334 334 333 333 333 333 333 333 332 331 332 331 331 331 331 331 331 330 329 329 328 327 327 327 327
333 334 336 335 335 336 336 336 335 334 333 333 334 335 335 334 334 334 333 332 332 331 332 332 332 332 332 332 333 333 334 334 334 333 333 333 333 333 334 333 333 333 333 333 333 332 332 332 331 331 331 330 331 331 330 330 330 329 328 327 327 326
333 333 335 335 335 334 335 335 335 334 333 333 335 335 335 334 334 333 332 332 331 331 331 332 332 332 332 333 333 333 333 333 333 333 333 333 333 333 334 333 333 333 333 333 332 332 331 331 330 331 331 330 331 331 331 330 330 329 328 327 327 326
333 333 334 335 335 334 334 334 334 334 333 334 334 335 334 333 333 333 332 332 331 331 332 332 332 332 333 333 333 333 333 333 333 332 332 333 333 334 334 334 333 333 333 332 332 331 331 331 330 331 331 331 332 332 330 329 330 330 328 328 328 327
332 333 333 334 334 333 333 333 333 334 335 334 334 334 333 333 333 332 331 331 331 331 332 332 333 333 333 333 333 333 332 332 332 332 332 333 333 333 334 334 334 333 332 332 331 331 331 331 331 331 331 332 332 332 330 329 329 330 328 328 328 327
331 331 333 333 332 331 332 332 333 334 335 334 334 334 333 333 332 330 330 331 331 331 331 332 333 334 334 333 333 332 332 331 331 331 333 333 333 333 333 333 333 333 333 333 332 331 331 332 332 332 332 331 332 332 331 329 329 330 329 328 327 326
330 330 331 331 331 332 332 332 332 333 335 335 334 334 334 332 331 330 330 331 330 331 331 332 333 333 333 333 332 331 331 331 331 331 333 334 333 333 333 332 333 333 333 333 332 331 332 332 333 333 332 331 331 331 330 329 329 330 329 328 327 327

ECMWFFLT2_925_thetae_069.txt.gz
Theta_e
344 343 342 340 340 341 339 337 339 338 337 335 334 335 334 336 338 339 338 338 338 336 335 335 335 336 338 338 338 336 334 333 331 330 331 328 321 320 328 332 332 332 332 333 335 335 333 333 333 332 331 329 327 325 324 323 324 326 328 328 327 327
344 343 342 342 342 342 340 339 339 338 337 336 335 335 335 337 339 340 340 338 337 336 336 335 334 335 337 338 337 336 335 333 332 331 331 329 322 322 330 332 332 333 332 334 336 335 335 333 332 332 331 329 326 324 323 323 325 326 327 327 327 327
344 343 342 342 342 342 341 340 339 338 337 336 335 336 337 339 340 341 340 338 337 336 335 335 334 335 336 337 338 336 335 333 333 332 331 331 325 323 330 332 332 333 332 334 335 335 335 334 333 331 331 329 326 324 323 323 324 325 325 327 328 328
344 343 343 343 341 341 340 340 338 337 337 337 336 336 338 340 340 340 339 338 337 336 334 334 334 334 335 337 337 336 335 333 332 332 332 332 327 322 327 332 332 332 333 334 335 335 334 333 333 332 331 330 327 325 323 323 323 324 325 326 327 327
343 343 343 342 341 340 340 339 338 337 336 337 338 336 338 340 340 339 337 337 337 335 334 335 336 335 335 336 337 337 335 333 332 332 332 331 329 324 324 330 332 332 333 334 334 334 334 333 333 332 331 329 327 325 324 323 323 324 325 326 326 326
343 342 342 341 340 340 340 339 338 338 337 338 339 338 339 340 339 337 336 336 335 335 334 335 337 335 334 335 337 336 334 333 333 332 332 332 330 327 325 328 331 332 333 335 335 334 335 334 333 332 331 329 328 327 325 323 322 324 327 327 328 328
343 342 341 341 341 341 341 340 339 338 337 338 339 338 339 339 338 337 336 336 334 334 334 335 337 335 334 335 337 336 334 333 333 332 332 332 331 329 328 329 331 331 332 336 336 335 335 334 333 332 330 329 328 327 325 324 322 323 326 326 327 327
342 341 340 340 341 341 341 340 339 339 338 337 339 339 339 339 338 337 337 336 334 333 333 334 336 336 334 334 336 335 335 334 333 333 332 331 332 331 330 329 330 329 332 336 337 336 335 335 334 332 330 330 329 328 325 324 322 322 324 325 326 326
340 340 339 339 340 340 341 340 338 338 338 338 339 339 339 338 338 338 337 336 334 333 332 334 335 335 333 333 335 334 333 334 333 333 332 331 331 331 331 331 331 332 334 336 336 336 336 335 334 332 331 331 330 328 326 325 324 323 324 326 327 326
337 338 337 337 338 339 340 340 338 337 338 339 339 340 339 338 339 339 338 336 335 333 332 333 334 334 333 333 333 333 332 333 333 332 333 332 331 331 331 332 334 334 334 334 332 334 336 336 334 333 332 332 331 328 327 326 324 323 324 325 326 324
335 334 333 334 334 337 339 338 338 337 338 339 339 340 339 339 339 339 338 337 336 335 334 334 334 334 333 332 333 333 332 332 332 332 332 332 332 331 331 331 332 332 331 331 331 332 336 336 335 334 333 333 331 329 328 326 324 321 321 322 321 321
336 333 331 331 330 335 337 335 335 336 338 339 338 339 339 339 339 338 337 336 336 337 335 335 335 334 333 332 333 333 332 330 330 330 330 330 331 331 331 330 330 331 331 331 332 331 334 336 335 334 333 332 331 330 329 327 323 319 318 318 319 322
337 335 330 327 329 334 334 330 333 336 337 338 339 339 340 339 338 336 336 335 336 337 336 335 335 335 334 333 333 333 331 331 331 330 331 331 331 331 331 331 331 332 332 332 332 331 334 336 334 333 333 332 332 331 330 327 322 318 317 319 322 326
338 337 332 330 331 331 331 328 331 335 335 338 340 340 340 339 337 336 335 334 335 336 336 335 335 335 334 334 333 333 332 332 332 332 332 332 332 332 332 332 332 332 332 331 332 333 335 335 334 333 333 332 332 331 330 328 322 319 320 323 326 327
339 337 333 334 335 331 329 327 328 332 335 338 339 339 340 339 337 336 336 335 335 336 336 335 335 335 334 334 333 333 333 333 334 333 332 333 333 333 334 333 333 333 332 332 333 335 336 335 333 332 332 332 332 332 331 328 323 321 323 326 327 327
338 336 332 335 336 332 331 329 327 331 335 338 339 339 339 339 338 337 337 337 335 336 336 335 335 335 334 334 334 334 333 333 334 334 333 333 333 334 334 333 333 332 332 332 333 335 335 333 332 331 331 332 332 332 331 329 325 323 325 327 326 326
336 336 334 336 336 334 332 330 328 332 335 337 339 339 339 340 339 338 339 337 336 336 336 335 335 334 334 334 334 334 334 334 334 334 334 334 334 334 334 333 333 333 332 332 332 334 333 332 331 331 331 331 332 332 331 330 326 324 325 327 327 325
335 335 333 335 337 335 332 331 330 333 336 337 338 339 339 339 339 338 339 337 336 336 336 336 335 334 334 335 335 334 334 334 335 335 334 334 335 334 334 334 333 333 333 333 333 333 332 331 330 330 330 330 331 331 331 330 327 325 325 327 328 327
335 335 334 334 336 335 334 333 332 334 337 336 336 339 339 339 339 339 339 337 336 336 335 335 335 335 335 335 335 334 335 335 335 335 334 335 335 334 334 334 334 333 332 333 332 332 332 331 329 329 329 330 330 331 331 331 329 326 326 327 328 328
334 334 334 335 336 335 335 334 333 334 336 336 335 337 339 339 338 339 338 337 335 335 335 334 334 335 334 335 335 334 335 336 336 336 335 335 335 335 335 334 334 333 332 332 332 332 332 331 329 328 328 329 329 330 330 330 330 329 328 328 329 329
333 333 333 335 336 335 334 334 333 334 335 336 336 336 338 338 338 338 337 336 335 335 334 333 333 333 333 335 335 334 334 336 336 335 335 335 335 335 335 334 333 332 332 332 331 331 332 331 330 329 328 329 329 330 330 329 330 330 329 329 330 329
333 333 334 335 336 335 335 334 333 334 335 336 337 337 338 338 338 338 337 336 336 335 335 334 333 332 333 334 335 335 335 336 336 335 335 335 336 336 334 333 333 332 331 331 331 330 331 331 330 328 329 329 329 329 329 329 329 329 329 329 330 328
333 333 334 335 335 334 335 334 334 334 336 336 337 338 337 337 338 337 336 336 335 335 335 334 333 332 332 333 334 335 336 335 336 336 335 335 336 335 333 333 332 331 331 331 331 330 330 330 329 328 329 329 330 330 330 330 329 329 329 328 329 328
334 334 334 334 335 333 332 334 336 336 336 336 337 337 338 337 338 337 336 335 335 335 335 335 334 333 332 333 333 334 335 335 336 336 335 335 335 335 333 333 332 331 331 330 330 330 330 330 329 328 328 329 329 329 331 330 328 328 328 328 328 328
335 334 334 333 334 335 334 336 336 336 336 337 337 337 337 337 337 337 336 335 335 335 335 335 335 334 333 333 333 333 335 335 336 336 336 335 336 334 334 334 333 332 331 331 330 330 330 330 329 328 327 328 329 329 330 330 328 328 328 328 328 328
334 334 334 334 334 335 335 336 336 336 336 336 336 336 336 336 336 336 335 335 335 335 336 335 335 334 333 333 334 334 334 334 334 335 335 336 336 334 333 334 333 333 332 331 330 330 330 330 329 328 327 327 328 328 328 329 329 328 327 328 329 328
333 334 335 335 334 334 335 336 336 336 336 336 336 335 336 336 336 336 336 335 335 335 336 335 335 334 333 334 334 334 333 332 333 333 334 336 336 334 334 334 334 333 332 331 330 330 330 330 329 328 327 327 327 328 327 327 328 328 328 328 328 327
333 333 335 335 334 334 334 335 335 335 335 335 336 335 335 335 335 336 335 335 335 334 335 335 335 334 333 334 334 334 333 332 333 334 334 335 335 334 334 334 333 333 332 331 331 330 330 330 330 328 327 328 329 328 327 326 327 327 327 328 328 327
333 333 334 335 334 334 334 334 335 335 335 335 335 335 335 335 334 335 334 334 334 333 334 334 335 334 334 334 335 335 334 333 333 334 335 335 335 335 334 334 334 333 332 331 331 331 330 330 330 329 328 329 329 328 326 327 327 326 325 327 328 327
332 333 333 334 334 334 334 334 335 335 335 335 335 335 335 335 334 334 334 334 333 333 333 334 334 334 334 335 335 335 335 334 333 334 335 335 335 335 334 334 334 333 333 332 331 331 330 331 331 330 329 329 329 327 326 326 326 326 325 326 327 326
332 332 333 333 334 334 334 334 334 335 335 335 335 335 334 334 334 334 334 333 333 333 334 334 334 334 334 335 335 336 336 335 334 334 334 335 335 335 335 334 334 333 333 332 332 331 331 330 331 331 330 330 329 328 328 327 326 326 325 324 325 326
331 331 332 333 334 334 334 334 334 334 334 335 335 334 335 334 334 333 333 333 332 332 333 333 333 334 334 334 334 336 336 335 335 335 334 333 334 335 334 335 334 334 333 333 332 332 331 331 331 331 330 330 330 329 328 327 326 326 325 324 324 326
331 331 331 332 333 334 334 334 334 334 334 334 334 334 335 334 334 333 333 333 332 333 332 331 333 334 334 334 334 334 335 335 335 334 333 333 334 334 334 334 334 334 333 333 332 332 332 331 331 331 331 330 330 329 328 327 327 326 325 325 324 325
331 330 330 331 332 333 334 334 334 334 333 333 334 334 334 334 334 333 333 333 332 332 333 331 332 333 333 334 334 335 335 335 334 334 333 333 334 334 334 335 334 333 333 333 333 332 332 332 332 331 331 331 330 329 328 327 327 327 325 325 324 325
330 330 330 330 331 332 332 331 332 333 331 332 333 333 334 334 334 333 333 333 333 332 333 332 331 332 333 334 334 335 334 333 333 333 332 333 334 334 334 334 333 332 332 333 333 333 332 331 331 332 331 331 330 329 328 327 328 327 326 325 324 325
329 329 329 329 330 332 332 331 330 331 331 332 333 333 333 333 333 334 333 333 333 332 332 332 331 331 332 333 334 335 333 331 332 333 332 333 334 335 334 334 333 333 332 332 333 333 332 331 331 331 331 330 330 330 329 328 328 328 327 326 325 325
329 329 328 328 329 330 330 330 330 331 332 332 332 332 330 331 333 334 334 333 334 333 332 331 331 331 330 332 334 334 332 331 332 333 333 333 334 334 333 333 333 333 332 332 333 333 332 331 331 330 330 330 329 330 330 329 329 329 328 327 325 325

ECMWFFLT2_925_thetae_072.txt.gz
Theta_e
343 342 342 341 341 341 339 338 338 338 337 336 335 335 334 335 337 337 338 337 335 333 334 337 338 337 337 336 333 331 331 331 330 325 318 317 322 328 331 332 333 333 333 333 333 333 332 332 331 330 327 325 323 323 323 324 326 327 327 327 328 328
343 342 342 342 342 341 340 339 338 338 337 336 336 335 335 337 337 338 338 337 335 334 334 336 338 338 337 336 334 332 331 331 330 327 320 319 325 329 330 332 333 334 334 333 333 332 332 332 331 329 327 325 322 322 323 324 325 326 326 327 328 328
344 343 341 341 341 341 340 340 339 338 337 337 337 335 335 338 338 338 338 338 336 335 334 335 336 337 337 336 334 332 331 331 331 328 322 321 327 329 330 332 333 334 335 334 333 332 332 331 330 329 327 325 322 322 322 323 323 324 325 327 328 328
344 343 341 340 341 342 340 340 340 338 337 336 336 335 335 338 339 339 338 338 337 336 334 334 334 336 336 336 335 333 332 331 331 330 325 323 326 328 329 331 333 335 335 334 334 333 332 332 331 329 327 325 323 322 322 322 322 324 327 328 328 328
343 342 342 341 341 342 340 340 339 338 337 336 336 335 336 339 340 340 338 338 337 336 335 334 334 335 336 337 336 333 332 332 331 331 327 323 325 327 329 331 333 334 334 334 333 333 333 332 331 330 328 326 324 323 322 321 322 324 326 327 326 326
342 341 341 341 342 342 340 340 339 337 337 336 336 335 337 339 339 340 339 338 337 336 335 334 335 335 336 336 336 334 332 332 331 331 329 325 324 327 329 331 333 334 334 334 333 333 332 332 332 330 328 327 325 324 322 321 322 324 325 326 326 326
341 340 341 342 341 341 340 339 338 337 337 336 336 335 338 339 339 339 339 338 337 336 335 334 335 335 336 336 336 334 332 332 331 331 331 327 324 326 329 331 333 334 333 333 333 333 332 332 332 331 329 328 326 324 322 321 323 325 326 328 328 328
341 340 340 341 341 339 339 339 337 337 336 336 337 336 337 338 339 339 337 337 336 335 334 334 335 335 335 336 336 334 333 332 332 331 331 329 325 325 329 331 332 334 334 334 333 333 332 332 331 330 330 329 327 325 322 322 324 325 327 327 328 327
341 340 340 340 340 339 338 339 338 338 336 336 337 337 337 338 339 338 336 336 335 335 334 334 335 335 334 335 336 335 333 333 332 332 331 331 328 327 328 330 332 335 335 335 335 334 333 332 332 330 331 331 328 326 324 323 323 324 325 325 326 325
341 340 340 340 340 338 338 340 339 338 337 336 337 337 337 338 338 337 336 335 335 334 333 332 334 335 334 334 336 335 333 333 332 332 331 331 331 329 329 330 332 335 336 335 336 335 334 333 332 330 330 331 329 327 326 324 323 323 324 325 325 325
341 340 340 340 340 339 338 340 339 338 337 336 336 336 337 338 338 337 336 336 335 334 333 332 333 335 334 333 335 335 334 334 333 332 332 331 331 330 330 330 332 335 335 333 333 334 336 335 332 330 330 330 329 328 327 325 323 323 323 325 325 324
339 339 340 340 339 338 339 340 340 338 337 336 335 336 337 338 338 337 337 336 336 335 333 332 332 334 333 332 334 334 333 333 333 332 332 331 330 330 330 331 332 333 332 331 330 332 335 336 333 331 330 330 329 328 327 325 323 321 322 323 322 323
338 338 338 338 338 338 339 340 339 338 337 336 335 335 336 338 338 337 337 337 336 336 334 333 333 333 333 333 333 334 332 332 332 332 332 332 331 331 330 331 332 331 330 330 331 331 334 336 334 332 331 330 329 329 328 326 322 320 320 320 321 324
338 338 336 334 335 337 339 339 339 338 337 335 334 335 336 337 338 338 338 338 337 336 335 335 334 334 334 333 333 334 333 331 331 331 331 331 331 331 330 330 330 330 330 331 331 330 333 335 334 333 331 330 330 329 328 326 322 318 318 320 322 325
337 335 331 329 330 332 336 337 338 337 336 336 335 335 336 338 338 338 339 338 338 337 336 336 335 335 334 334 333 333 333 330 330 330 330 330 331 330 330 330 330 331 331 332 332 331 333 335 334 333 332 331 330 329 329 326 321 318 319 322 325 327
335 333 332 333 333 333 334 334 336 336 336 337 336 336 337 337 338 338 339 338 337 336 336 336 336 335 335 334 333 333 332 331 331 330 331 331 331 331 331 332 332 332 332 332 332 332 333 334 333 333 332 331 331 330 329 326 321 318 321 325 327 327
334 334 335 336 335 334 334 334 335 334 335 337 337 337 336 336 337 338 339 337 336 335 335 336 335 334 335 334 334 333 332 332 332 332 332 332 332 333 333 333 333 332 332 332 333 333 333 333 333 332 332 332 331 330 329 327 322 320 323 327 327 326
337 336 336 336 335 332 332 334 335 333 332 335 337 337 336 337 337 337 337 336 336 335 335 335 334 334 334 335 334 333 333 333 333 333 333 333 332 333 333 333 333 332 332 331 333 334 333 333 332 331 331 331 332 331 330 327 322 321 325 327 327 325
338 337 337 337 336 333 332 333 334 333 331 333 337 338 337 337 336 336 335 335 336 337 336 335 334 334 334 335 335 334 334 333 333 334 333 333 333 333 333 333 333 332 332 332 332 333 332 332 330 330 330 330 331 330 330 327 322 323 325 327 327 325
339 338 337 336 335 334 333 333 334 333 333 333 335 337 337 337 336 336 335 334 336 337 337 336 334 334 334 335 334 334 334 334 334 334 334 333 333 333 333 333 333 332 332 332 331 331 331 331 329 328 328 329 329 329 330 328 325 324 325 326 327 326
339 338 336 336 335 334 334 333 333 333 333 334 335 336 337 337 337 336 335 335 336 337 337 336 335 335 335 335 334 335 335 334 334 334 334 334 334 334 334 333 333 333 333 332 330 330 330 330 329 328 329 329 329 330 330 330 328 326 325 326 327 328
338 337 336 336 335 334 334 334 333 332 333 334 334 335 335 336 336 336 336 336 336 337 337 336 334 335 335 335 335 335 335 334 334 334 334 334 334 334 334 333 333 332 332 331 330 329 329 329 328 329 330 330 330 330 330 329 329 329 328 328 328 328
337 336 335 335 334 334 334 334 334 332 332 334 334 334 334 335 336 336 337 336 336 337 337 336 334 335 335 335 334 334 335 334 334 335 335 334 334 334 334 333 333 333 331 331 330 329 329 329 329 329 329 330 330 330 329 328 328 328 328 328 329 328
336 335 333 333 334 333 333 333 334 333 333 333 334 333 334 335 336 336 337 337 336 337 337 336 334 334 334 334 334 333 334 334 334 335 335 335 335 334 334 332 332 333 331 330 329 329 330 329 329 329 328 329 329 329 328 328 328 328 328 328 328 328
334 333 332 332 332 332 333 333 333 334 333 333 334 335 335 336 336 336 337 336 337 337 336 335 335 334 333 333 333 333 333 334 334 335 336 335 334 335 335 333 332 332 332 331 330 329 330 330 329 328 328 328 328 328 328 328 328 327 327 327 328 327
333 332 332 331 332 332 332 333 333 333 334 334 335 336 336 337 336 336 337 336 336 337 336 335 335 335 334 333 333 332 332 334 335 335 335 335 335 335 335 333 332 332 332 331 330 329 329 330 329 328 327 327 326 326 327 328 328 327 327 327 327 327
332 332 332 331 331 332 332 332 333 334 334 335 336 336 336 336 336 337 336 336 336 336 336 336 335 335 334 333 332 331 332 333 334 335 335 335 335 335 335 334 333 332 332 331 330 329 329 329 329 327 326 325 325 325 325 327 327 327 328 328 327 327
331 332 332 331 331 332 332 332 334 334 334 335 335 335 335 335 336 336 336 336 335 335 335 335 335 335 335 334 333 332 332 332 334 335 335 335 336 335 335 334 333 331 331 331 330 329 329 329 328 327 327 326 327 327 326 326 326 326 326 327 328 328
331 332 332 332 331 332 332 332 333 334 334 335 335 335 335 335 335 336 335 335 335 334 335 334 335 335 334 334 333 333 332 332 333 334 335 335 336 335 335 335 333 332 331 331 330 329 329 329 328 328 327 326 328 327 326 327 326 324 324 326 328 327
331 332 332 332 331 331 333 333 333 334 334 335 335 335 335 335 335 335 335 335 335 333 333 334 335 334 333 332 333 333 333 333 334 334 334 334 335 335 335 335 334 333 333 332 331 329 329 329 329 329 328 327 328 327 326 326 325 324 324 325 327 327
331 331 331 331 330 331 333 333 333 334 334 334 335 335 335 335 334 334 334 334 334 332 332 333 334 334 334 333 332 333 333 333 334 333 332 333 333 334 334 335 334 333 332 331 331 330 329 329 329 329 329 328 328 327 327 326 326 325 324 324 325 326
330 330 331 331 331 332 333 334 334 334 334 334 335 335 335 335 334 334 334 333 333 332 332 333 333 333 334 334 333 333 333 334 334 333 333 332 333 333 334 334 334 333 332 331 331 331 330 329 329 330 329 328 328 328 328 328 327 326 325 324 324 325
330 330 330 331 331 332 333 334 334 334 334 334 334 335 335 335 335 334 334 332 332 332 332 332 332 332 333 333 333 333 334 334 333 334 333 332 333 334 334 335 334 334 333 332 332 331 330 330 330 330 330 329 328 328 329 328 328 326 325 324 324 325
330 329 329 330 330 331 332 333 333 333 333 333 333 332 331 333 334 334 333 332 331 330 331 331 331 332 333 333 333 333 333 333 332 333 333 333 333 333 334 335 333 332 332 333 332 332 331 331 331 330 330 330 330 329 329 329 328 327 326 324 324 324
328 328 327 328 329 330 330 331 332 333 333 333 332 330 330 332 334 334 333 332 331 330 330 330 330 331 332 333 333 333 333 333 333 333 334 333 332 332 332 333 333 332 332 333 333 332 331 331 331 331 330 330 330 330 329 329 328 327 326 325 324 324
325 326 326 327 328 329 329 329 330 331 332 332 332 331 331 333 334 334 333 332 331 330 330 330 330 331 331 331 332 332 333 333 333 334 334 332 330 329 331 333 333 332 332 333 333 332 332 332 331 331 331 331 331 330 330 329 328 327 327 326 325 324
323 324 325 326 326 327 327 328 328 329 330 330 331 332 332 332 333 333 332 332 331 331 330 331 331 331 331 331 331 332 333 333 332 333 333 332 329 329 331 332 332 333 332 333 333 332 332 332 332 331 331 331 331 331 330 330 329 327 327 326 325 325

ECMWFFLT2_925_thetae_075.txt.gz
Theta_e
345 344 342 341 341 339 337 338 337 337 336 336 335 332 333 335 336 336 333 332 334 336 337 337 336 335 334 331 330 331 334 332 324 320 322 323 327 330 331 333 333 333 333 332 332 331 331 329 327 324 323 321 321 325 328 329 330 330 330 329 330 329
344 344 343 343 342 340 338 339 338 338 336 337 336 334 335 338 338 338 336 333 334 336 337 337 337 336 334 332 330 332 334 333 326 320 322 325 329 332 332 333 333 333 333 332 332 331 331 329 326 324 322 322 324 327 327 328 330 330 329 330 329 329
344 344 343 343 343 341 340 339 339 338 337 338 337 335 336 339 339 339 338 336 335 337 337 338 337 336 335 331 330 332 334 334 328 322 324 328 330 332 333 333 333 333 333 332 332 332 332 329 326 324 323 322 325 326 326 327 329 330 330 330 329 328
344 344 343 343 343 342 341 340 340 339 338 338 338 336 337 339 339 340 339 337 336 336 336 337 337 336 335 332 331 332 334 334 329 325 326 329 331 332 333 333 333 332 332 332 332 332 332 330 327 324 323 323 324 325 326 328 329 330 330 329 329 328
344 344 344 343 343 343 342 341 341 341 340 339 339 338 338 339 340 340 339 338 336 335 335 336 336 336 336 334 333 334 335 334 332 330 329 331 333 333 334 334 333 333 332 332 332 332 332 330 328 325 324 324 324 324 326 328 329 330 329 329 328 328
344 344 344 344 343 342 341 341 340 341 340 340 339 338 339 339 339 339 338 338 336 335 334 335 336 336 337 336 335 335 335 335 334 331 330 333 333 332 334 335 334 334 333 333 332 332 332 331 329 326 325 324 324 324 326 328 329 330 329 329 328 327
343 343 343 343 342 342 341 340 340 340 339 339 339 337 338 340 340 340 339 338 336 335 335 335 336 336 336 336 336 335 335 335 334 333 331 332 331 332 334 334 334 334 333 333 332 332 332 331 329 327 327 325 324 323 324 327 329 330 330 329 328 327
342 342 342 342 342 342 341 340 340 340 339 339 338 336 337 339 339 340 339 338 337 336 335 335 336 335 335 336 336 336 335 333 333 333 332 330 330 332 333 334 334 333 333 333 332 332 332 331 329 328 328 326 324 323 323 326 329 330 329 329 329 326
341 341 342 342 342 342 341 340 339 339 339 338 337 337 338 339 339 340 340 339 338 336 335 335 335 335 334 334 336 336 335 332 331 332 332 330 329 331 332 333 334 333 333 333 332 332 331 331 329 328 329 327 325 324 324 326 328 330 329 329 329 326
340 341 342 342 341 341 341 340 339 339 339 338 337 338 338 338 338 339 340 339 338 337 335 335 335 336 335 334 335 336 335 333 331 330 331 330 330 330 332 333 334 334 333 333 332 332 332 331 330 329 330 328 326 325 324 325 327 329 330 329 329 327
339 341 341 341 341 340 341 340 339 339 339 338 338 338 337 337 339 339 339 339 338 336 335 335 335 336 336 335 335 336 335 334 332 331 330 329 330 330 331 333 335 335 335 334 333 332 332 331 330 330 330 330 328 327 325 324 325 327 329 329 329 328
339 341 340 340 340 340 340 339 339 338 339 338 337 338 336 337 339 339 339 338 337 336 334 335 335 335 336 336 335 336 336 334 333 332 331 329 329 329 330 333 335 335 334 334 334 333 333 332 331 330 330 330 329 328 326 325 325 327 328 328 328 328
339 340 340 339 339 340 340 339 339 338 339 339 337 338 337 338 339 339 339 337 337 335 334 335 335 334 335 336 335 336 336 334 333 333 332 331 329 329 330 332 334 334 332 331 333 334 334 333 332 330 330 330 329 328 327 326 327 328 328 327 327 328
338 339 339 339 339 339 340 339 339 339 339 339 338 338 338 338 339 339 338 337 337 336 334 335 334 333 334 335 335 335 336 334 334 334 332 332 331 330 330 331 332 332 330 330 332 334 334 334 332 331 330 330 330 330 329 328 328 328 328 327 327 328
338 339 339 339 339 339 339 338 339 339 338 338 338 338 337 338 338 339 338 337 337 337 336 335 334 333 334 335 335 335 334 334 334 334 333 332 332 331 330 331 331 331 330 331 333 334 334 334 333 332 331 331 331 331 331 330 329 328 328 328 328 329
338 339 339 339 338 338 338 338 339 339 338 338 337 337 337 337 338 338 338 337 338 338 337 336 335 334 334 335 335 334 334 334 334 334 334 333 332 332 332 331 330 330 330 332 333 333 333 333 334 333 332 331 331 331 331 331 329 328 327 328 329 329
338 339 339 339 338 337 338 339 339 339 338 337 337 337 336 337 338 338 338 338 338 338 337 336 336 336 335 335 334 333 333 333 333 333 333 333 332 332 331 331 331 331 331 331 333 332 332 333 333 332 332 331 331 331 331 331 329 327 327 328 329 329
338 338 339 338 338 337 337 338 338 338 338 337 337 337 335 335 337 338 338 338 338 338 337 335 335 336 336 336 335 333 333 333 332 332 332 332 332 331 331 331 332 332 332 332 333 333 332 333 333 332 332 331 331 331 331 331 328 326 327 329 328 328
337 337 337 338 337 336 337 337 337 337 338 337 336 336 336 335 335 337 337 338 339 338 337 335 334 335 335 335 334 333 333 333 333 332 332 332 333 333 333 333 333 333 332 332 333 333 332 332 332 331 331 331 331 331 330 330 328 326 328 329 328 328
337 337 337 337 336 336 336 336 335 336 337 336 335 335 336 335 335 336 337 337 338 338 336 334 334 334 334 334 334 334 333 333 333 334 333 333 334 334 334 334 334 333 332 332 332 332 332 332 331 331 331 330 330 330 330 330 329 327 328 328 328 328
334 335 335 335 335 335 335 335 334 334 335 335 334 333 334 334 335 336 337 337 338 337 336 334 334 335 334 334 333 334 333 333 334 334 334 334 334 334 334 334 334 333 333 332 331 331 331 331 331 331 330 330 330 330 330 330 329 328 327 327 328 328
332 333 334 333 333 333 333 334 333 333 333 333 333 333 332 333 334 335 336 336 336 337 335 335 335 335 335 334 333 334 334 334 334 335 334 334 334 334 334 334 334 333 333 332 332 331 331 331 331 331 331 331 331 330 330 330 330 329 328 327 328 328
333 333 333 333 333 332 331 332 332 332 332 332 332 332 332 333 333 334 335 336 336 336 335 335 336 336 336 335 334 334 334 334 334 334 334 334 334 334 334 334 334 333 333 332 332 331 330 331 331 331 331 331 331 331 330 330 329 329 329 329 328 328
333 332 333 333 333 332 331 331 331 331 332 332 332 332 332 332 332 333 334 335 335 335 335 336 336 336 336 336 335 334 334 333 333 333 334 334 334 334 333 333 334 334 333 332 331 330 330 331 331 331 331 330 330 331 330 330 329 328 328 329 328 328
333 331 332 333 333 333 332 332 331 331 332 332 332 332 333 333 332 333 334 334 335 334 335 336 336 336 336 336 336 335 334 333 333 334 334 334 334 334 333 333 334 334 333 333 332 330 330 330 331 332 331 330 330 330 329 328 329 329 328 328 328 328
331 331 331 332 333 332 332 333 332 332 332 332 333 332 333 334 333 333 334 334 334 333 333 334 336 336 336 336 336 335 335 334 334 334 334 334 334 334 334 333 333 333 334 334 333 331 330 330 331 331 330 330 329 328 329 328 328 329 328 327 327 327
330 331 331 331 332 332 332 333 332 333 333 332 333 333 334 334 334 334 334 334 335 334 332 332 333 335 336 336 335 335 335 335 334 333 333 334 334 334 334 333 332 333 334 333 333 332 331 330 330 330 329 328 326 326 328 329 328 328 328 327 328 327
331 331 331 332 332 332 332 332 332 333 333 333 333 333 334 334 334 334 334 335 335 333 333 332 332 334 335 335 334 334 334 334 334 333 333 334 335 334 333 333 332 333 333 333 333 333 332 331 330 330 329 328 327 326 329 331 329 328 328 327 327 327
331 331 331 332 332 332 332 332 332 332 333 334 334 334 334 334 334 334 334 334 334 333 333 333 332 333 334 334 333 334 334 334 333 334 334 334 335 334 332 332 331 331 332 333 333 333 332 331 330 331 330 329 329 329 330 330 329 329 328 327 327 327
331 331 331 331 332 332 332 332 332 332 332 333 333 334 333 332 333 333 333 332 333 333 333 332 332 332 332 332 333 334 333 333 332 332 334 334 335 334 332 331 330 330 331 332 333 333 333 332 331 331 330 329 329 329 329 330 329 329 329 328 327 327
330 330 330 331 331 332 332 332 332 333 333 333 333 334 331 331 333 332 331 332 332 332 332 332 332 331 331 331 332 333 334 333 331 331 332 334 335 335 334 331 330 331 331 332 332 332 332 332 332 331 330 329 329 329 330 330 330 329 329 329 327 327
329 329 330 330 330 331 332 332 333 333 333 333 334 334 331 332 333 332 332 333 333 332 332 332 331 332 332 332 331 331 332 332 331 331 332 333 334 335 335 332 331 331 330 331 332 332 331 331 331 331 330 330 330 330 330 331 331 330 329 329 328 327
327 327 328 328 329 330 331 331 332 332 333 333 333 333 332 331 332 332 334 334 333 332 332 331 331 331 332 332 331 330 330 331 331 332 332 333 333 334 334 332 331 330 330 332 331 331 331 330 330 331 330 330 330 331 331 331 330 330 329 329 329 328
324 325 326 326 327 329 330 330 331 331 332 333 333 333 332 331 331 333 333 333 333 332 332 331 331 331 331 332 332 331 330 331 331 331 332 333 333 333 332 332 331 330 331 331 329 330 331 330 331 331 330 331 330 330 331 330 329 329 329 329 329 328
320 322 323 324 325 327 327 328 329 330 331 332 333 332 332 332 331 332 332 332 333 333 332 332 331 331 331 330 330 331 331 331 331 331 331 332 333 332 332 332 332 331 330 330 330 330 330 330 331 331 331 331 331 331 330 329 329 330 330 329 329 329
317 319 321 322 323 324 325 327 327 328 329 330 331 332 332 332 331 332 333 333 334 333 333 332 332 330 330 330 330 330 330 331 332 331 331 331 331 332 333 332 331 331 331 331 331 330 330 329 330 331 331 331 331 331 330 329 329 330 329 329 329 329
314 316 320 321 322 323 324 325 326 327 328 328 329 330 331 332 332 332 333 333 333 333 332 332 332 330 330 330 330 330 330 331 332 332 331 330 329 330 333 333 332 332 332 331 331 330 329 329 330 330 332 332 332 331 331 330 330 330 329 328 328 328

ECMWFFLT2_925_thetae_078.txt.gz
Theta_e
345 344 344 344 342 339 338 337 338 336 334 333 333 334 335 335 335 333 331 331 336 339 339 336 335 336 335 333 333 333 332 330 327 325 326 327 327 328 332 334 333 333 332 331 330 328 326 323 322 320 322 329 333 334 334 335 334 333 334 333 332 331
346 346 346 345 344 341 338 339 340 338 337 335 332 333 335 336 337 334 330 333 338 340 340 338 338 338 337 335 333 332 331 328 324 324 325 326 327 329 332 333 333 333 332 331 332 332 329 325 322 320 326 332 333 333 335 335 334 333 333 333 331 329
346 347 346 345 345 343 340 341 341 340 340 338 334 334 339 339 340 337 334 337 340 340 341 341 340 338 338 337 334 333 332 326 323 324 325 328 329 332 333 333 333 332 332 333 335 336 334 331 325 324 331 334 333 333 334 334 334 333 333 332 330 328
347 347 346 346 345 344 342 342 343 341 341 341 337 338 341 341 341 340 339 340 340 340 341 342 340 338 337 337 335 334 333 326 324 325 327 331 332 332 334 334 333 332 333 336 337 336 336 335 330 330 333 333 332 333 334 335 334 333 333 331 329 328
346 346 346 346 346 344 343 343 343 342 342 342 340 340 341 341 342 341 341 341 340 340 340 341 340 338 337 338 336 336 335 330 329 329 330 334 335 334 336 336 334 333 336 338 337 336 336 335 333 333 333 332 333 333 334 334 334 333 333 331 329 327
345 345 345 345 346 344 344 343 343 342 342 342 341 341 341 342 342 342 342 341 341 340 339 339 339 339 338 338 337 336 336 334 333 332 332 334 335 336 337 337 335 336 337 337 337 336 336 335 334 333 332 333 333 333 334 333 333 332 332 331 328 326
346 346 345 345 345 344 344 343 342 343 342 342 342 341 341 341 341 342 342 341 341 340 338 338 338 339 339 338 337 336 336 335 334 332 333 334 334 336 337 337 337 337 337 337 337 336 335 335 334 334 333 333 333 334 334 333 332 331 331 331 328 327
346 345 345 345 345 344 344 343 342 342 342 342 341 340 341 341 341 342 342 342 341 339 338 337 338 338 338 338 338 337 336 336 334 332 333 333 333 335 336 337 338 337 337 336 336 335 334 334 334 334 333 333 333 334 334 333 332 331 331 331 329 328
345 344 345 345 344 344 343 343 342 342 341 341 341 340 340 340 341 341 342 342 340 339 338 337 338 338 337 337 337 337 336 336 335 333 333 333 332 335 336 337 337 336 336 336 335 335 334 334 334 334 334 334 334 334 334 333 332 331 330 330 330 327
344 344 344 344 344 344 343 343 343 342 342 341 340 340 340 341 341 341 342 342 341 340 339 338 339 338 337 337 337 337 337 336 335 334 333 332 332 334 336 336 337 337 336 336 335 334 333 333 334 334 334 334 334 334 334 333 333 332 331 330 330 328
344 344 343 344 344 344 344 344 343 342 342 342 340 340 340 341 341 341 342 343 342 340 339 339 339 339 338 337 337 337 337 336 335 334 332 332 332 333 335 336 337 336 336 336 335 335 334 333 334 334 334 334 334 334 333 334 333 333 332 330 330 330
344 343 342 343 344 344 344 343 343 343 342 342 341 341 341 341 341 341 342 342 342 340 339 340 340 339 339 338 338 337 337 336 335 334 333 332 332 333 334 336 336 336 336 335 335 335 334 334 334 334 334 335 334 334 334 334 333 333 332 330 330 330
343 343 342 343 344 344 344 343 343 342 342 343 342 342 341 340 341 341 342 342 342 341 340 340 340 339 338 338 338 337 336 336 336 335 334 333 332 333 334 334 335 336 335 336 336 335 334 335 335 334 335 335 335 334 334 333 333 332 331 330 330 331
343 342 343 343 343 343 343 343 343 342 342 342 341 342 341 340 341 340 341 341 341 341 340 340 340 339 338 338 337 336 336 336 336 336 335 334 333 333 333 334 334 335 335 335 335 335 335 335 335 335 335 335 334 334 333 333 333 332 331 331 331 331
341 341 342 342 342 342 343 343 342 342 342 341 341 341 341 340 340 340 339 340 340 341 340 340 340 339 338 338 337 336 336 336 336 336 335 335 334 333 332 333 333 334 334 334 335 335 335 335 335 334 334 334 334 333 333 333 332 332 331 331 331 332
341 340 341 341 341 341 342 342 342 342 341 341 340 341 341 340 339 339 339 339 340 340 339 340 339 339 339 338 337 336 336 337 336 335 335 335 335 334 333 333 333 334 334 334 334 334 334 334 334 334 333 333 333 333 333 333 333 332 331 332 332 333
338 338 339 340 341 340 340 340 340 340 340 341 341 340 340 340 340 339 340 339 339 339 338 339 339 339 339 338 337 337 337 336 336 336 335 335 334 334 334 334 334 334 334 334 333 334 334 334 334 334 333 333 333 333 333 333 333 332 332 332 333 333
337 337 337 338 340 340 339 338 338 338 338 339 340 340 339 340 340 338 339 339 339 339 338 338 339 339 339 339 338 338 338 337 337 336 336 336 334 334 335 335 335 334 334 334 333 334 334 334 334 334 333 333 333 333 334 334 333 332 332 332 333 333
336 337 337 337 338 338 339 338 338 338 337 337 337 339 339 339 338 336 337 338 338 337 337 338 338 339 339 339 339 339 339 338 337 337 336 335 334 334 336 336 336 335 335 335 334 334 334 334 334 333 334 333 333 334 334 334 332 332 332 332 333 332
334 335 336 337 337 337 339 337 338 338 337 337 336 337 339 339 338 336 336 337 338 337 336 338 339 338 339 340 339 339 339 338 337 337 336 336 334 334 336 338 337 336 335 335 334 335 335 334 334 334 334 334 334 334 334 333 333 332 332 332 332 332
335 335 336 337 337 337 338 336 336 336 336 338 338 337 339 339 338 337 335 336 338 337 336 337 338 337 338 339 338 338 339 339 338 337 336 336 335 334 335 338 337 336 335 334 334 335 335 334 334 334 334 334 334 334 333 333 333 332 332 332 332 332
335 336 337 337 337 337 337 337 337 337 337 337 337 337 338 338 337 335 334 335 335 336 335 336 337 337 337 338 337 338 339 339 338 337 337 337 337 336 335 337 337 336 335 334 334 334 334 334 334 334 335 334 334 333 333 333 333 333 332 332 332 332
335 336 336 336 336 336 337 337 337 337 336 336 336 336 336 337 337 335 334 334 333 333 333 333 335 336 336 337 336 336 337 338 339 339 339 338 338 337 336 336 337 336 335 334 334 334 333 335 334 334 334 333 332 333 333 333 333 333 332 332 332 332
335 335 335 335 335 335 336 336 336 336 336 336 335 335 336 336 336 335 334 334 334 333 333 333 334 335 335 336 336 335 336 338 339 338 338 337 337 337 337 337 336 336 335 334 334 334 334 335 333 333 333 332 332 333 333 333 334 334 332 333 333 332
334 334 334 334 334 335 335 335 335 335 334 335 335 335 336 335 335 336 335 335 334 333 333 334 334 335 335 335 335 335 336 338 339 338 338 338 337 335 336 337 336 335 334 333 335 334 334 335 333 333 333 333 333 332 333 334 334 334 332 332 333 332
333 333 334 334 334 334 335 335 335 335 335 335 335 336 336 334 334 335 337 336 335 334 333 334 334 334 335 335 335 335 335 337 338 338 338 337 336 334 335 337 336 334 333 333 335 335 334 334 334 334 335 334 334 332 333 334 333 333 333 331 332 332
333 333 333 333 334 334 335 335 335 335 335 335 335 336 336 335 334 335 335 336 335 335 334 334 334 334 333 334 335 335 335 336 337 338 337 336 335 334 334 335 335 335 334 334 335 334 333 334 334 334 334 335 335 333 333 333 331 332 332 330 331 331
334 333 333 334 334 334 334 334 335 335 335 335 335 336 336 336 336 336 335 335 334 334 334 333 334 334 333 334 335 335 335 335 336 337 337 335 334 334 333 334 334 334 334 334 334 333 333 334 334 334 334 335 335 333 332 333 332 331 331 330 331 331
333 333 333 334 334 334 334 334 335 335 334 335 335 336 336 336 337 337 336 335 335 335 334 333 333 333 334 334 334 335 335 335 335 336 336 335 334 333 333 334 334 334 334 334 334 333 332 333 334 334 334 334 335 333 332 333 333 332 331 331 330 330
333 333 333 333 333 334 334 334 334 334 334 335 335 335 335 336 337 336 336 336 336 336 335 333 332 332 333 333 333 334 334 334 334 334 335 335 334 333 333 334 334 334 335 335 334 333 332 332 333 334 334 334 334 334 333 333 334 333 332 331 330 329
330 331 332 332 333 334 334 334 334 334 335 335 335 335 335 335 336 336 336 336 335 335 334 332 331 332 333 333 333 333 333 333 333 333 334 335 334 333 333 334 334 334 334 334 334 333 333 332 331 332 333 333 334 333 333 334 334 333 332 332 331 330
327 328 330 331 332 332 333 333 334 334 335 335 335 335 335 335 335 336 336 335 334 335 334 332 332 332 332 333 333 333 333 333 333 333 333 334 333 333 333 334 334 334 334 333 332 332 332 331 331 332 332 332 333 332 332 333 332 332 332 332 331 331
325 326 327 328 328 329 330 331 332 334 335 335 334 335 335 335 335 336 336 336 335 335 334 334 334 333 332 332 333 332 333 333 333 333 333 334 333 332 332 333 334 333 333 333 332 332 332 332 333 333 332 332 333 332 333 333 332 331 331 331 331 331
323 324 325 325 325 326 327 329 330 331 333 333 334 334 335 335 335 336 336 336 335 335 335 334 334 334 333 333 332 332 333 333 333 333 334 334 334 333 332 332 333 333 333 332 333 333 333 333 335 335 333 333 333 333 333 332 331 331 331 331 331 331
321 322 322 323 323 324 325 327 328 329 330 332 332 333 334 334 335 335 335 335 335 335 335 334 334 334 334 333 333 332 332 332 333 333 334 334 334 333 333 332 332 332 332 332 333 333 333 334 335 334 334 333 332 333 333 332 331 331 331 331 331 331
319 320 321 321 322 323 324 325 327 328 329 330 331 332 333 333 334 334 334 334 335 335 335 335 334 334 334 334 333 332 332 332 332 333 333 334 334 333 333 333 333 333 332 333 333 333 334 334 335 334 334 334 333 333 332 332 332 331 331 331 331 330
318 319 319 319 320 321 322 324 325 326 327 328 330 331 331 332 332 332 333 334 334 335 335 335 334 334 334 333 333 332 332 331 332 332 332 333 333 333 333 333 333 332 333 333 333 333 333 334 334 334 334 334 333 332 331 331 332 331 331 331 331 330

ECMWFFLT2_925_thetae_084.txt.gz
Theta_e
342 341 340 340 340 340 337 336 337 337 337 337 338 338 338 338 338 338 336 334 335 335 336 337 337 338 337 336 337 335 334 331 329 329 328 330 333 334 332 331 331 326 320 315 315 323 330 333 334 335 336 336 335 334 333 333 334 333 332 331 328 329
342 341 341 341 341 341 338 337 338 337 337 337 337 338 338 338 338 339 336 333 334 335 337 338 337 337 335 334 335 335 335 331 330 329 327 329 332 333 333 331 330 325 317 313 320 329 333 334 335 336 336 337 336 336 335 335 335 334 333 330 327 329
343 342 342 342 342 342 338 338 340 339 338 337 337 337 337 337 337 339 336 332 335 338 339 338 337 337 336 333 332 334 335 332 331 330 327 328 331 334 333 331 330 325 318 313 321 331 333 334 335 336 336 337 337 337 336 335 335 334 333 329 326 328
343 342 342 342 342 343 338 339 341 339 339 338 337 336 337 338 338 339 338 335 337 340 340 338 338 339 338 336 331 332 334 332 331 330 328 327 330 334 334 331 331 330 327 323 323 328 332 334 335 336 336 336 336 336 335 334 334 332 331 328 326 328
342 341 342 341 342 343 340 340 341 339 340 339 338 337 337 339 338 338 338 337 337 340 341 340 340 339 339 338 335 332 331 331 331 329 329 327 329 334 334 332 331 333 336 335 334 330 328 331 334 337 337 336 337 336 335 334 334 332 331 328 326 329
342 342 341 340 342 342 341 341 341 341 340 339 340 338 338 340 338 337 337 338 338 339 340 339 339 339 339 338 337 335 330 328 329 329 329 329 332 333 333 332 331 335 337 338 339 334 329 330 334 337 336 336 336 335 335 334 334 333 331 326 323 328
343 343 342 341 342 342 341 342 341 341 341 339 340 338 339 340 340 339 337 337 339 339 339 338 339 339 338 338 337 337 333 330 329 330 330 333 336 333 334 336 332 333 337 338 339 336 333 332 335 336 335 335 335 335 334 333 334 333 331 327 322 325
343 343 343 343 343 342 341 342 342 341 341 340 340 339 339 339 340 340 337 338 340 340 339 339 339 339 338 337 338 337 336 333 331 331 331 334 338 334 335 340 335 333 337 339 338 336 335 334 335 334 334 335 334 335 334 333 334 332 332 329 323 322
344 343 344 344 342 342 342 342 342 341 341 341 340 340 339 338 340 340 339 340 340 341 340 339 339 339 338 338 338 337 336 334 332 332 331 333 337 335 336 339 338 336 337 338 337 336 335 334 335 334 334 334 334 335 333 333 333 332 332 330 325 322
343 343 343 343 343 343 343 342 342 341 340 340 340 340 339 339 339 340 340 341 341 342 342 340 338 338 338 338 338 336 336 334 333 334 332 332 336 336 336 338 338 337 337 338 336 335 334 334 334 334 334 335 335 335 334 333 332 333 332 331 328 324
343 342 342 343 343 342 342 341 340 340 340 340 339 339 340 339 338 338 339 340 342 342 342 341 339 338 338 338 338 337 337 335 334 335 332 331 334 335 335 337 338 337 337 337 335 334 333 334 334 333 334 335 335 334 334 333 332 333 332 331 330 326
342 342 342 342 342 342 341 341 340 340 340 340 339 339 339 338 338 338 338 340 340 340 341 340 339 339 338 338 338 337 337 336 335 335 333 331 333 334 335 336 337 337 337 337 335 333 333 333 332 333 334 335 334 334 334 334 333 333 333 333 332 330
342 341 341 341 341 341 342 341 341 341 340 340 339 339 340 338 339 339 338 339 340 340 340 340 340 340 339 338 337 337 337 337 337 335 334 332 333 334 335 336 337 337 337 336 336 334 332 332 331 332 333 334 334 334 334 334 334 333 333 333 332 332
341 340 340 341 342 341 341 341 341 341 340 340 339 340 341 339 339 339 339 340 341 341 340 339 340 339 339 339 337 337 337 337 337 336 335 333 332 333 334 335 337 337 337 336 336 335 333 332 332 332 333 334 334 334 334 334 334 333 333 332 333 332
341 340 341 341 342 341 341 340 340 341 340 340 340 341 342 340 339 339 339 340 340 341 341 339 339 339 338 338 338 338 337 336 336 336 336 335 333 333 333 334 336 337 336 335 335 336 335 333 333 333 335 335 334 334 334 334 335 334 333 333 333 333
340 340 341 340 341 341 340 340 341 342 342 341 342 341 341 340 339 338 338 339 339 339 339 338 338 338 337 337 337 337 337 336 337 336 335 335 334 333 332 334 336 337 336 335 335 336 336 335 333 334 336 335 334 334 334 335 335 334 334 333 333 334
342 342 341 341 341 341 341 341 341 342 342 342 342 341 340 339 339 339 338 338 338 339 338 338 337 337 337 337 337 336 336 335 336 335 333 334 335 333 332 333 335 336 336 335 335 336 336 335 334 334 334 335 335 335 335 335 335 334 334 334 333 334
342 343 342 342 342 342 342 343 342 341 342 342 342 341 340 339 339 338 338 337 338 339 338 337 336 337 337 337 337 337 336 335 335 335 332 334 336 334 333 332 333 335 335 335 335 336 335 334 334 333 333 334 336 335 335 335 335 335 334 334 334 334
341 342 341 341 342 342 342 342 342 342 342 342 341 341 340 339 339 339 338 337 338 338 338 336 336 337 337 336 337 337 336 335 335 335 333 335 335 335 334 333 333 333 333 333 334 334 333 332 333 334 333 333 335 335 335 336 335 335 334 333 333 334
340 341 340 341 341 341 341 341 341 341 340 340 340 340 340 339 340 339 337 337 337 338 337 336 337 337 337 336 337 336 336 335 335 334 334 334 335 334 334 335 334 333 332 333 334 334 333 332 332 333 332 332 333 334 334 336 335 334 334 333 334 334
340 340 340 341 341 341 341 341 340 340 340 340 340 340 340 340 339 338 338 337 337 337 337 336 336 336 335 336 336 335 335 334 334 333 334 334 334 335 335 335 335 334 333 334 335 334 332 332 332 331 332 333 331 331 334 336 335 334 334 334 334 334
339 340 340 340 341 340 341 341 340 341 341 340 340 340 339 340 339 338 337 337 336 336 336 335 335 335 335 335 335 334 334 334 333 333 334 335 334 335 335 335 335 335 335 335 335 333 331 332 332 330 331 333 331 331 334 335 335 334 333 334 334 334
339 339 339 338 339 339 339 339 340 340 340 340 340 339 339 339 339 339 337 336 336 336 336 335 335 336 336 335 335 333 333 334 333 333 335 335 335 335 335 335 335 336 336 335 334 332 333 334 332 330 330 333 333 333 335 335 334 334 334 334 333 333
338 338 338 337 338 338 338 338 339 339 339 339 340 339 339 339 339 340 338 337 335 335 335 335 335 336 336 336 334 333 333 334 334 333 334 335 335 335 335 335 335 336 336 335 334 333 333 334 333 331 332 334 333 332 335 336 335 335 334 334 333 333
337 337 337 337 337 338 337 338 338 338 339 339 339 338 339 338 338 339 339 339 337 335 335 335 335 336 337 336 334 332 332 334 334 333 332 334 334 335 335 334 335 336 336 335 335 334 333 333 333 332 332 334 335 334 336 336 335 336 334 333 333 333
337 337 337 337 337 337 338 338 338 338 339 339 339 338 338 338 338 338 339 339 338 335 334 336 336 337 337 337 335 334 333 335 335 333 332 332 333 335 335 335 335 335 335 334 334 333 332 332 333 333 332 333 334 334 334 334 335 337 335 333 333 333
337 337 337 337 337 337 337 338 338 338 339 339 339 338 337 338 339 338 339 340 339 337 336 337 337 337 338 337 337 336 335 336 336 334 332 332 333 334 335 335 334 334 333 334 333 332 333 332 333 334 334 333 333 332 332 333 335 337 336 335 333 332
336 336 336 336 337 337 338 337 338 338 339 339 338 338 337 338 338 338 339 339 339 339 337 337 337 337 337 337 337 336 336 336 336 335 335 334 333 333 335 335 334 334 334 333 333 333 333 332 333 335 334 334 335 335 334 333 334 335 336 336 334 333
332 333 333 333 334 335 336 337 338 338 338 338 338 338 338 337 337 337 338 338 339 339 338 337 337 337 336 336 337 337 336 336 336 335 335 335 334 334 335 335 335 335 334 333 333 334 334 332 334 335 335 335 336 335 334 334 334 333 333 335 335 334
329 330 330 330 331 332 333 334 336 336 337 338 338 338 338 338 337 336 337 337 337 337 337 337 336 337 336 335 335 336 336 336 336 335 335 335 335 335 335 335 335 334 334 334 334 334 334 334 334 334 335 336 335 335 335 335 334 333 332 333 334 333
328 327 328 328 328 330 330 331 332 333 335 336 336 337 337 338 337 337 336 336 335 335 335 335 335 335 335 335 334 335 335 335 335 336 336 335 335 335 335 335 336 335 334 335 335 334 335 335 334 334 334 335 334 334 334 333 333 332 332 332 333 332
326 326 327 326 327 328 329 329 330 331 332 333 334 335 336 336 337 337 336 335 335 333 332 332 333 333 333 334 334 335 335 334 335 335 336 336 336 335 335 336 336 336 335 336 335 335 335 335 335 335 334 333 332 332 332 332 332 332 331 331 331 332
325 325 325 325 326 326 327 327 327 329 330 330 331 332 333 335 335 336 335 334 334 333 332 333 333 332 332 332 333 334 335 334 335 335 335 336 336 336 336 336 336 336 336 336 335 335 335 335 335 335 334 334 333 333 332 332 332 331 331 330 330 331
324 324 324 324 325 325 325 326 326 327 328 328 329 329 331 332 333 334 335 335 334 333 333 334 334 333 332 332 332 334 334 334 335 335 334 335 336 335 335 336 336 336 336 336 335 335 335 335 334 334 334 334 334 334 333 332 331 331 331 330 331 331
323 323 323 323 324 324 324 325 325 326 326 326 326 327 328 330 331 332 333 334 334 333 334 334 334 334 333 333 333 333 334 335 335 335 334 334 335 335 335 335 336 335 336 335 335 334 335 335 335 334 334 334 334 334 333 332 332 331 331 331 331 330
322 322 322 322 323 323 323 324 324 324 324 324 325 325 326 327 329 330 331 332 333 332 333 333 333 334 334 334 334 333 333 334 334 334 334 334 334 335 334 334 334 335 335 335 335 335 335 335 334 334 334 334 335 335 334 333 332 331 331 331 331 330
322 321 321 321 322 322 322 323 323 323 323 323 324 324 325 326 327 328 329 331 332 332 332 332 333 333 334 334 334 334 333 333 333 333 333 333 333 333 334 333 333 335 336 335 335 335 335 335 334 334 334 334 335 334 334 333 332 331 332 331 331 330

ECMWFFLT2_925_thetae_087.txt.gz
Theta_e
333 331 332 335 334 334 336 335 335 334 335 335 334 333 334 335 335 336 335 335 335 336 336 336 336 336 337 337 337 336 334 331 328 328 329 331 332 332 331 331 326 318 314 315 325 332 332 333 334 334 333 333 334 333 333 333 332 330 327 325 326 329
335 333 334 336 335 335 336 336 334 334 334 335 336 335 334 334 335 335 334 333 333 334 334 335 335 334 334 335 335 334 335 332 329 328 328 329 331 332 331 331 326 317 313 317 326 332 333 334 335 335 335 335 335 334 332 332 331 329 325 324 327 329
336 336 339 338 336 335 335 335 333 334 335 335 336 335 335 335 335 336 334 331 333 333 334 336 335 334 332 332 332 332 334 332 330 329 328 328 330 332 331 331 327 316 316 324 330 333 334 335 336 336 336 336 336 335 333 334 332 331 326 324 327 329
338 340 341 338 336 334 334 335 333 335 335 335 336 335 336 336 337 337 333 330 334 336 336 337 336 337 334 333 332 329 332 332 330 330 328 328 328 332 332 331 327 317 321 331 332 334 335 335 336 335 336 336 336 334 334 334 333 332 327 324 326 328
338 342 340 337 337 335 335 336 335 336 336 335 335 336 337 338 338 339 335 331 335 338 339 338 337 338 337 337 334 328 329 331 330 329 329 329 327 330 332 331 329 319 322 331 332 334 333 333 335 335 335 336 336 335 333 334 333 332 329 325 324 326
337 342 341 338 339 336 337 338 336 337 338 335 335 336 338 339 339 339 338 334 334 337 338 339 338 338 337 338 337 332 329 329 330 329 329 329 327 328 331 331 331 326 323 326 329 331 329 329 334 336 334 335 337 335 333 333 333 332 329 325 324 325
339 341 341 341 341 338 338 339 336 338 338 335 335 336 337 339 339 339 339 337 335 336 337 339 339 338 338 338 338 336 333 329 329 330 329 330 329 328 329 331 332 332 332 332 332 332 332 331 332 335 334 333 336 335 333 334 333 333 329 324 324 324
340 341 341 342 342 339 340 340 338 339 339 336 337 337 336 338 339 339 339 337 336 337 338 339 339 339 338 338 338 337 337 331 327 328 330 330 330 329 330 331 331 332 334 336 337 337 338 334 331 335 334 333 335 335 334 333 333 333 330 326 323 323
342 342 341 342 342 341 340 341 340 340 339 337 338 337 337 338 339 340 339 337 336 338 339 339 339 339 339 338 337 337 338 334 328 326 328 328 330 332 333 334 333 331 332 334 337 338 338 335 333 334 333 333 335 334 334 333 333 332 331 327 323 323
342 341 342 342 342 342 341 342 341 340 341 339 339 339 339 339 339 339 340 338 337 339 340 340 339 339 339 338 338 338 337 335 332 329 327 327 328 333 336 336 335 334 334 334 335 338 337 335 334 334 334 333 334 334 333 333 333 332 331 328 325 324
343 343 343 343 342 342 341 342 342 341 341 341 340 340 339 339 339 339 340 339 339 340 340 340 340 339 339 338 338 338 337 336 335 332 330 329 328 331 334 335 335 336 337 336 336 337 336 335 334 334 334 334 334 334 333 333 332 332 331 329 328 325
343 343 343 343 342 342 342 341 341 341 341 341 340 339 339 339 339 338 339 339 339 340 340 340 340 340 338 338 338 338 338 336 335 333 333 332 330 330 332 334 335 336 337 337 337 338 336 334 334 333 333 334 334 333 333 333 332 332 331 331 330 326
342 342 343 343 342 342 342 341 340 340 340 340 339 339 339 339 339 338 338 339 339 339 339 339 339 339 339 338 338 338 338 336 335 333 333 333 331 331 332 332 333 334 336 337 337 337 335 333 333 333 333 334 334 333 334 333 333 332 332 332 331 329
340 341 341 342 342 341 341 340 340 340 340 340 339 339 339 339 338 338 338 339 339 339 338 339 339 339 339 339 338 337 337 337 336 334 333 334 332 330 331 331 332 332 333 335 336 337 336 334 333 332 333 333 332 333 334 333 333 333 332 332 331 331
340 340 340 340 340 340 341 340 340 340 340 340 339 339 340 338 338 339 339 339 339 340 340 340 340 340 340 339 338 338 337 337 337 336 335 335 332 330 331 332 332 331 332 335 336 336 335 335 334 333 332 332 331 332 333 333 333 333 332 332 332 331
339 340 341 340 341 341 341 341 341 340 340 339 338 338 339 338 338 339 339 339 339 340 340 341 341 340 340 339 339 338 337 337 336 337 336 336 334 332 332 332 332 331 332 336 336 335 333 333 334 333 332 332 331 331 331 332 333 332 333 332 332 332
340 340 340 340 340 340 341 342 342 341 340 340 338 338 339 339 339 339 339 338 339 339 339 341 341 340 339 338 338 338 337 337 336 336 336 336 335 334 333 332 332 331 333 336 337 336 333 332 333 333 332 332 332 332 331 332 332 333 333 333 332 333
341 341 341 341 341 341 341 343 342 341 341 341 340 340 340 340 339 338 338 338 338 338 338 340 340 339 338 338 337 337 337 337 336 336 336 336 335 335 334 332 332 331 333 336 337 336 335 334 333 332 332 332 332 332 332 331 332 332 333 333 333 333
340 340 341 342 342 342 342 342 342 342 341 341 341 341 340 339 338 338 338 338 337 337 338 338 339 338 338 338 337 337 337 336 335 335 335 334 334 334 334 334 332 332 333 335 335 335 334 334 333 332 332 332 332 332 332 332 331 332 333 333 334 333
339 340 341 341 341 342 342 342 342 341 341 341 341 340 340 339 338 338 338 338 337 337 337 338 337 337 337 337 337 337 337 336 335 335 334 334 332 332 333 334 333 332 333 334 334 334 334 334 332 332 332 331 332 332 332 332 332 332 334 334 334 334
340 340 341 341 341 341 341 341 341 340 340 340 340 340 339 339 338 338 339 338 337 337 337 337 336 336 337 337 336 336 337 337 336 335 334 334 333 331 332 335 334 333 332 333 333 333 333 333 331 331 331 331 332 332 332 333 332 333 334 334 333 334
339 339 340 340 340 340 340 340 340 340 341 340 340 339 339 339 339 339 339 338 337 337 337 337 336 335 336 336 335 336 336 336 336 334 334 333 333 333 333 335 335 334 334 333 333 333 333 332 332 332 330 330 331 331 332 332 333 334 334 334 333 333
338 337 337 338 338 338 338 339 339 339 340 340 340 339 339 339 339 339 338 338 337 337 336 336 336 335 335 335 335 335 336 336 335 334 333 333 332 333 334 335 334 334 335 334 333 333 333 332 332 332 331 332 333 333 333 332 333 335 334 334 334 334
337 336 336 337 337 337 337 337 338 338 338 339 339 339 339 339 339 339 338 338 337 336 336 335 336 335 335 335 336 336 336 336 335 334 334 333 333 333 334 335 335 335 335 335 334 334 333 332 332 332 332 333 333 334 337 335 332 334 335 333 333 334
337 337 337 337 337 337 337 337 337 338 338 339 339 338 339 339 339 339 339 339 338 337 336 335 335 335 335 335 335 336 335 335 335 335 335 334 334 334 334 334 335 335 334 335 334 334 334 332 332 332 332 333 333 335 338 335 333 334 334 334 333 333
336 335 336 336 337 338 337 337 337 338 338 338 339 338 338 338 337 338 338 338 339 339 337 335 334 335 335 335 336 336 336 335 335 334 335 335 335 334 334 334 334 335 335 335 335 334 333 332 332 333 332 332 334 334 335 335 335 336 335 334 334 333
332 332 333 334 335 336 336 337 338 337 338 338 338 337 337 337 338 338 338 339 339 339 338 335 334 335 335 336 336 337 337 336 334 334 334 335 335 334 334 333 333 335 335 335 335 334 333 333 332 332 332 331 331 331 331 333 336 337 337 335 334 333
329 329 330 331 332 333 334 335 335 336 336 337 337 337 337 337 338 338 338 339 339 339 338 337 336 336 336 337 337 337 337 336 336 335 334 334 335 335 334 334 334 335 334 334 335 335 334 333 332 332 332 332 331 331 331 331 332 335 337 337 334 333
327 326 327 329 330 330 331 331 332 332 333 334 335 336 336 337 337 336 336 337 338 338 338 337 337 336 337 337 337 337 337 337 336 336 335 335 335 335 335 334 334 334 335 334 335 335 334 333 333 332 332 332 332 332 331 331 332 332 334 337 335 334
325 325 325 326 327 328 328 328 329 329 330 330 331 333 334 336 336 336 335 336 336 336 336 336 336 336 336 337 336 336 336 336 336 336 336 335 335 335 335 335 334 334 335 334 334 334 334 333 332 332 333 333 332 333 333 333 334 333 332 334 335 333
324 324 325 325 325 325 325 326 327 327 327 328 328 329 331 333 334 335 335 335 335 334 335 335 335 335 335 335 336 336 335 334 335 335 334 334 335 335 335 335 335 334 335 335 334 334 334 333 332 332 333 334 333 334 334 334 334 334 332 332 334 334
323 323 324 324 324 324 324 325 326 325 325 325 325 327 328 329 330 332 333 334 334 334 334 334 333 333 333 333 334 334 334 334 334 334 334 334 334 335 334 335 335 335 335 334 334 333 333 333 333 333 333 334 335 334 334 334 333 333 333 332 332 332
322 322 323 323 323 323 324 324 324 323 323 324 324 325 326 327 327 329 330 332 333 333 333 333 333 333 333 333 333 332 333 333 333 334 334 334 334 334 334 334 334 334 334 335 334 333 333 334 334 334 334 334 335 335 334 334 333 333 333 332 331 330
322 322 322 322 322 322 323 323 322 322 322 322 323 324 325 326 326 327 328 329 330 332 333 332 332 332 333 333 333 333 333 333 333 333 334 334 334 334 334 334 333 332 333 334 334 333 332 334 335 335 335 334 334 335 334 334 333 333 332 332 331 330
321 321 321 321 320 321 321 321 320 320 321 321 321 322 323 323 323 324 325 326 327 329 331 332 332 332 332 332 333 333 333 333 333 333 333 333 332 331 332 333 332 332 332 332 332 332 332 333 334 333 334 335 334 334 334 334 333 333 332 331 331 330
320 320 320 320 320 320 320 320 319 320 320 320 320 321 321 321 321 322 322 323 323 325 327 330 331 331 331 332 332 333 333 333 333 333 333 332 330 329 331 332 331 332 332 331 330 330 330 331 331 331 332 333 334 334 334 334 333 333 332 331 331 330
318 318 319 319 319 319 318 319 319 319 319 319 319 319 319 319 320 320 320 320 321 322 324 326 327 329 331 331 331 332 332 332 333 333 332 332 330 328 330 332 331 331 333 332 331 331 330 330 329 329 330 330 331 333 334 334 334 333 333 332 331 330

ECMWFFLT2_925_thetae_093.txt.gz
Theta_e
339 338 336 335 334 333 333 333 332 333 334 333 335 336 336 336 336 337 338 338 338 338 338 338 338 337 337 337 336 335 332 329 328 329 328 329 329 323 314 314 322 329 331 331 332 332 332 333 333 333 333 333 333 332 331 332 331 329 325 324 324 326
337 336 335 334 333 333 334 334 332 333 333 334 335 335 336 336 335 336 337 337 337 338 338 337 337 336 336 336 335 335 334 330 328 329 330 330 330 325 316 312 318 327 331 331 332 331 332 334 333 333 333 333 332 332 332 332 330 327 325 323 324 326
335 334 334 334 333 333 335 333 332 333 333 335 336 335 336 336 335 336 336 336 336 337 337 337 336 335 335 335 335 335 335 332 328 328 329 330 331 328 320 312 314 323 330 331 331 332 333 334 333 334 335 334 333 332 332 331 329 327 325 323 324 326
334 334 335 335 333 333 333 332 332 332 333 334 335 335 335 336 336 335 335 335 335 336 336 336 335 335 335 334 334 335 335 334 330 328 328 329 330 331 324 313 311 319 327 332 331 332 334 334 333 334 335 335 333 333 332 331 329 327 326 324 324 325
333 334 335 335 335 334 333 333 332 331 333 333 334 335 335 335 334 334 334 333 333 334 334 334 333 334 334 333 333 333 334 335 332 328 327 328 329 331 328 317 311 315 324 331 332 333 334 334 333 333 334 335 334 333 332 332 330 328 327 326 325 325
334 335 336 335 335 334 333 332 331 332 333 333 333 333 333 333 333 334 334 332 332 333 332 333 334 334 334 333 333 333 332 333 332 330 327 328 328 329 330 323 313 314 322 330 332 333 334 334 333 332 332 333 334 334 333 333 332 330 328 326 326 325
335 337 336 335 335 333 332 332 331 332 334 334 333 333 333 333 334 335 334 331 331 332 333 335 336 336 336 335 335 334 332 330 331 331 329 328 328 328 330 328 318 314 321 330 332 333 334 333 331 331 332 333 333 334 334 334 333 330 329 327 326 325
337 338 337 335 333 332 332 332 331 331 332 334 334 333 334 334 335 335 334 333 332 332 334 337 338 337 337 337 337 336 334 331 329 330 330 328 328 327 329 330 322 317 324 330 332 333 332 331 332 333 335 335 334 334 334 334 333 331 330 327 326 324
338 339 338 335 332 333 333 332 332 330 331 333 333 333 333 333 335 335 335 336 335 334 333 335 336 336 337 338 337 337 336 335 332 330 330 329 329 328 328 330 326 322 328 332 332 332 330 331 335 335 335 335 334 334 334 334 333 331 330 329 326 323
339 339 339 336 333 334 334 333 334 333 331 332 332 332 332 333 335 336 336 337 337 336 335 335 335 335 337 338 338 338 337 337 336 333 330 329 329 329 328 329 328 326 329 332 332 331 330 332 335 334 334 335 335 334 334 334 333 332 331 330 325 323
339 339 339 337 333 335 336 335 335 335 333 332 332 332 331 333 335 336 336 337 337 337 337 337 336 335 336 338 339 338 338 337 337 336 333 329 328 329 329 329 329 329 330 329 329 329 331 333 334 335 336 335 335 334 333 333 333 332 331 331 326 324
339 339 340 340 336 335 337 338 337 336 336 335 334 334 333 333 335 336 337 337 338 338 338 338 338 337 336 337 339 338 339 338 338 337 336 333 328 327 329 329 329 331 332 332 331 331 333 334 336 337 336 335 334 333 333 333 332 331 331 330 326 325
339 340 340 341 339 337 337 338 338 338 338 338 337 337 336 337 337 337 338 338 338 338 338 338 339 339 337 337 339 339 338 338 338 337 337 336 333 329 328 328 329 330 332 333 333 334 335 335 336 336 335 335 334 332 333 333 332 331 331 330 327 326
339 340 340 341 341 340 339 339 339 340 339 339 339 339 339 339 339 339 339 338 338 338 338 338 339 339 339 339 339 339 339 338 338 337 337 337 337 334 331 329 328 330 331 332 333 333 334 335 335 335 335 335 334 332 332 333 333 332 331 330 327 327
339 340 341 341 341 341 341 340 340 340 340 340 340 340 340 340 339 339 338 338 338 337 337 338 338 338 339 339 339 339 339 338 338 337 337 337 337 336 335 332 330 330 331 331 331 332 333 334 334 334 334 334 333 332 332 332 332 332 331 330 329 328
340 340 341 341 341 341 341 341 340 340 340 340 340 339 339 339 338 338 338 338 337 337 337 337 338 338 338 338 339 339 338 338 338 338 337 336 337 336 336 335 333 332 332 332 332 331 331 332 333 333 333 334 333 332 332 332 331 331 332 330 330 329
341 341 342 342 342 341 341 340 340 339 339 339 339 339 339 338 338 338 338 337 337 338 338 338 338 338 338 338 339 338 338 338 338 338 337 336 336 336 336 336 335 334 332 333 333 331 331 332 333 334 333 333 332 332 332 331 331 331 332 331 330 330
341 341 342 341 341 340 340 340 339 339 339 339 339 339 339 339 338 339 339 338 338 338 338 338 338 339 339 339 339 338 338 338 337 337 337 337 336 335 336 336 336 335 334 334 333 332 331 331 332 333 333 332 331 332 331 331 331 331 332 331 330 331
340 340 340 340 340 340 339 339 340 340 339 339 339 339 339 339 339 340 339 339 338 338 337 337 337 337 338 338 338 338 338 338 337 337 337 337 336 336 336 335 335 335 335 335 334 333 331 331 332 332 333 332 331 331 331 331 331 331 331 331 331 331
340 339 340 340 340 340 339 339 340 340 340 340 339 339 339 339 339 340 339 338 338 337 337 337 337 337 337 337 338 338 338 337 337 336 336 337 337 336 336 334 334 335 335 335 334 333 332 331 332 332 333 332 331 330 330 330 331 331 331 331 331 331
341 341 341 341 341 340 340 340 340 340 339 339 339 339 339 339 339 339 338 338 338 337 338 337 337 337 336 336 337 337 336 336 335 335 336 336 336 336 336 334 334 334 334 334 334 334 332 332 332 332 332 332 331 330 330 331 331 331 331 331 331 331
341 341 341 341 341 340 340 340 339 339 339 339 339 339 339 339 338 338 338 338 338 338 338 338 338 337 337 336 336 336 336 335 335 335 335 335 335 335 335 335 334 334 334 334 334 334 333 332 332 331 331 330 330 331 330 330 330 331 331 331 331 331
339 339 340 339 339 339 339 339 339 339 339 339 339 339 339 338 338 338 338 338 338 338 338 338 337 337 336 336 336 336 336 336 335 335 335 335 335 334 334 334 333 332 333 334 334 333 333 333 332 331 330 329 331 332 332 330 329 330 330 330 331 331
337 337 337 337 337 337 337 338 338 337 338 338 338 338 338 338 338 337 338 338 338 338 338 337 337 337 336 336 336 335 336 336 336 336 335 335 335 334 334 334 333 332 332 332 334 333 333 333 332 331 330 329 329 331 333 332 329 330 330 330 331 331
335 336 336 336 336 336 337 336 336 337 337 337 337 337 337 337 337 337 337 338 338 338 338 337 337 338 337 336 335 335 335 336 336 336 335 335 335 335 334 334 333 332 331 332 333 333 333 333 332 332 330 330 330 331 335 333 329 331 331 330 331 331
333 334 335 335 336 336 336 336 336 335 335 336 336 335 335 335 335 336 336 336 337 337 337 338 338 338 337 336 335 335 335 336 336 336 335 335 334 334 335 334 332 332 331 331 333 333 333 333 333 332 330 330 330 331 332 331 332 335 332 330 331 331
331 332 332 333 334 335 335 335 334 334 333 333 333 333 333 334 334 335 335 335 335 335 336 336 336 336 336 335 335 335 335 335 335 335 335 334 334 334 334 334 333 333 332 331 332 333 333 333 332 331 330 329 329 329 329 329 332 334 334 333 332 331
329 329 329 330 332 332 332 332 332 332 331 331 330 330 331 331 332 333 333 334 334 334 334 333 333 333 334 333 333 333 333 333 333 333 334 333 333 333 334 334 334 334 333 332 333 333 333 333 331 331 331 330 329 328 328 328 329 329 331 333 333 332
326 327 327 328 329 329 329 329 330 330 329 328 328 328 329 329 330 330 331 331 332 333 333 332 332 331 332 332 332 332 332 332 332 332 332 332 332 333 333 333 334 334 334 333 334 333 333 333 331 330 330 330 329 328 328 328 328 328 328 330 332 333
324 325 326 326 327 327 327 327 327 327 327 327 327 327 328 328 328 328 328 329 329 330 331 331 331 331 331 331 331 332 332 332 332 331 331 331 331 331 331 332 332 333 332 332 333 333 333 334 332 330 330 330 329 328 328 328 328 328 328 329 330 330
323 323 323 323 324 324 325 325 324 325 325 325 325 325 326 325 325 325 325 325 326 327 328 328 329 329 330 330 330 331 331 331 332 332 332 331 331 331 332 331 331 332 331 331 332 332 333 333 332 330 330 330 329 329 328 328 328 329 328 328 329 329
322 322 322 321 322 322 322 323 323 323 323 323 323 323 323 322 322 322 322 322 324 325 326 327 327 328 329 329 329 330 330 330 331 331 331 331 331 332 332 332 331 331 330 330 330 331 331 332 331 330 329 329 329 329 328 328 328 329 329 328 329 329
320 320 320 320 320 320 320 320 321 321 321 321 321 321 320 320 320 320 321 321 322 323 324 325 326 326 326 327 327 328 329 330 330 330 331 330 330 331 331 331 331 330 330 329 329 330 330 330 329 329 329 329 329 329 329 328 328 328 329 329 328 329
319 319 319 318 318 318 318 319 319 319 319 319 319 319 319 319 319 319 319 320 320 320 321 322 323 323 323 325 325 326 328 329 329 330 330 330 330 330 330 330 330 329 329 329 329 329 328 328 328 329 329 328 328 329 328 328 328 328 329 329 328 328
318 318 318 317 316 316 316 317 317 317 317 317 317 317 317 317 317 318 318 318 318 318 319 319 321 321 321 322 323 324 326 327 327 328 328 328 328 329 329 330 329 329 329 329 329 328 328 328 329 329 328 328 328 328 328 328 328 329 329 329 329 329
317 317 316 315 315 315 315 315 316 316 315 316 316 316 316 316 316 316 316 316 316 316 317 318 319 319 319 320 320 321 324 324 324 325 326 326 326 327 328 328 328 328 328 328 328 327 327 328 328 328 328 329 329 328 329 329 329 329 329 329 330 330
317 316 316 315 315 314 315 315 315 315 315 315 315 315 315 314 314 314 314 314 314 314 315 315 316 316 317 318 318 319 321 321 320 321 322 322 323 324 325 324 325 325 326 326 327 327 327 327 328 327 328 328 328 329 329 328 328 328 329 329 329 329

ECMWFFLT2_925_thetae_096.txt.gz
Theta_e
338 337 334 329 328 329 331 331 331 329 327 331 334 336 338 338 339 339 338 339 339 339 338 338 337 337 337 336 335 335 333 329 327 328 328 328 325 318 317 321 323 326 329 330 330 332 332 333 333 333 333 333 333 332 331 332 329 326 323 322 322 324
336 334 330 325 323 325 330 331 331 330 330 333 334 334 336 337 338 338 338 338 338 338 337 337 336 336 336 335 335 335 334 332 328 328 329 329 328 320 315 319 323 326 330 330 330 332 333 333 333 333 333 332 332 331 332 332 329 326 324 323 323 325
334 331 327 326 326 328 331 331 331 331 331 334 334 333 335 336 336 337 337 337 337 337 337 336 335 335 335 333 334 335 335 334 330 328 328 329 330 325 316 316 323 327 329 330 330 331 333 333 334 334 333 333 332 332 332 331 329 328 325 324 324 325
332 329 328 328 329 332 333 330 330 332 332 335 336 334 334 336 335 334 336 336 336 336 336 336 335 335 335 333 333 335 336 335 332 328 327 328 329 330 323 314 317 325 327 328 330 331 333 334 334 335 334 333 332 332 332 331 330 329 327 325 325 325
331 329 330 330 331 334 334 332 331 332 334 335 336 335 334 335 335 334 334 335 335 335 335 335 334 334 334 333 331 333 335 335 334 330 328 327 327 329 329 321 313 318 325 327 329 332 333 333 334 334 334 334 333 333 332 332 331 330 328 327 326 325
331 331 332 331 332 335 334 332 332 333 334 335 335 335 335 335 335 334 334 333 333 333 333 333 334 333 334 333 332 332 332 332 333 332 330 328 328 327 329 328 318 314 321 325 328 332 333 333 333 333 333 333 333 333 333 332 332 331 329 328 326 324
331 333 334 333 333 334 333 332 332 333 333 334 334 334 335 335 334 334 334 333 331 331 332 333 334 335 336 336 336 335 333 331 330 331 331 329 329 327 327 330 325 316 316 323 328 332 333 332 331 331 333 334 333 333 333 333 333 332 330 328 327 324
333 334 334 334 334 334 333 333 333 334 334 333 334 334 334 334 334 334 336 335 332 331 333 334 336 337 336 336 336 337 336 334 331 329 330 330 329 329 327 328 328 321 316 321 329 332 332 331 329 331 334 334 334 334 333 333 333 332 331 329 328 325
334 336 335 334 335 335 334 333 333 333 335 335 335 334 333 334 334 335 337 337 335 334 334 334 335 335 335 335 336 337 337 337 336 333 331 330 329 329 328 327 328 327 321 322 329 332 331 330 329 331 334 333 334 334 334 334 333 333 332 330 328 325
335 337 337 336 335 335 334 333 333 333 333 335 335 334 334 334 334 336 337 337 337 337 336 336 336 337 336 336 336 338 338 337 338 337 336 334 332 329 328 328 328 329 327 326 330 331 330 329 329 331 333 333 335 335 334 334 334 333 333 331 329 326
337 338 338 338 336 334 334 333 333 333 333 333 333 333 333 333 333 335 336 336 337 337 337 337 337 338 338 337 337 337 338 338 338 338 337 337 335 332 329 328 328 329 329 329 330 331 330 330 330 331 332 334 335 335 334 334 333 333 333 331 330 327
338 339 339 340 337 334 335 335 334 335 335 333 332 333 332 332 332 333 335 336 336 337 337 338 337 338 338 338 338 337 338 338 338 338 337 337 337 336 333 329 328 328 329 330 331 331 331 331 332 333 333 334 335 335 334 333 333 333 333 332 331 328
339 339 340 341 338 335 335 336 337 336 336 336 335 335 334 335 335 335 337 337 337 338 338 338 337 337 338 338 338 338 338 338 339 338 337 337 337 337 336 334 331 329 328 329 330 331 332 333 333 334 334 335 335 335 334 333 333 332 333 332 331 329
339 340 340 341 340 338 337 336 338 338 338 338 338 338 338 338 338 339 339 338 338 338 338 337 337 337 338 338 338 338 338 338 339 338 337 337 337 337 337 337 335 333 330 328 328 330 331 332 332 333 333 334 334 334 334 333 332 332 333 332 332 330
339 340 340 340 340 340 339 338 339 339 339 340 339 339 340 339 339 339 339 338 338 337 337 337 337 337 337 337 338 338 338 338 338 338 338 337 337 337 336 336 336 335 334 331 330 330 330 331 331 331 331 333 333 333 333 333 332 332 333 332 332 331
339 339 339 339 340 340 340 340 340 340 340 340 340 340 339 339 338 338 338 338 338 337 337 337 337 337 337 338 338 338 338 338 338 337 338 338 337 336 336 336 336 335 334 333 332 331 331 332 331 331 331 332 332 333 333 332 332 331 332 332 332 331
340 340 340 340 341 341 341 341 340 339 339 339 339 339 339 339 338 338 338 338 338 338 337 337 337 337 337 338 337 338 338 338 337 336 337 337 336 336 336 335 335 335 334 333 332 332 332 332 332 331 331 332 332 333 333 332 332 331 331 331 331 331
341 341 341 341 341 341 340 340 339 339 339 338 339 338 338 338 338 338 339 339 339 338 337 337 337 337 337 337 336 336 336 337 336 336 336 336 336 336 335 335 335 335 334 334 333 333 333 332 331 331 331 331 332 332 333 332 331 331 331 331 331 331
340 340 340 340 340 339 339 338 338 338 338 339 339 339 339 339 339 339 339 339 339 337 337 337 337 337 337 336 336 335 335 335 335 335 335 335 335 335 335 334 334 334 334 334 334 334 334 332 329 330 330 331 332 332 332 332 331 331 331 331 330 330
339 339 339 339 339 339 339 338 338 339 339 339 339 339 339 339 338 339 339 338 338 338 338 337 337 337 337 337 336 335 335 334 334 335 335 334 334 334 334 333 333 334 334 333 334 334 334 333 331 331 331 331 331 331 331 331 331 331 331 330 330 330
340 339 339 340 340 340 339 340 339 339 339 339 339 339 338 338 338 338 338 338 338 338 338 338 337 337 337 336 336 336 335 335 334 334 334 334 334 334 334 333 333 333 333 333 333 333 333 333 332 331 331 331 331 331 331 331 331 331 331 330 330 330
340 340 340 340 340 340 340 339 339 339 338 338 338 338 338 338 337 338 338 338 338 338 338 338 338 337 337 336 335 335 335 334 333 333 334 335 334 333 333 333 333 332 333 332 332 332 333 332 332 331 331 331 331 331 331 331 331 331 331 331 330 330
338 338 338 338 338 338 339 338 338 337 337 337 337 337 337 336 337 337 337 337 337 337 338 337 337 337 337 337 336 335 334 333 333 333 335 336 335 335 334 334 333 332 332 331 331 331 332 332 332 331 330 331 331 331 332 330 330 331 331 330 330 330
336 336 337 337 336 337 337 337 337 336 337 336 336 336 336 336 336 335 335 335 335 336 337 337 337 337 336 336 335 334 333 333 333 334 334 335 336 335 334 333 333 333 332 331 331 330 331 331 332 332 331 331 329 330 333 331 328 329 330 330 330 330
334 335 335 335 335 335 336 336 336 336 336 336 335 335 334 334 335 334 334 334 334 334 335 335 335 335 335 335 334 333 333 333 333 333 334 334 335 334 333 332 333 334 333 332 331 330 331 331 331 332 331 331 330 330 333 331 329 331 330 329 330 330
333 333 333 333 333 334 334 334 334 334 334 333 332 331 331 332 333 333 334 334 334 334 333 333 333 333 333 333 333 333 332 333 333 332 333 333 333 333 333 332 332 332 333 332 332 331 331 331 331 332 332 332 332 332 331 329 329 332 330 329 330 330
332 331 331 332 332 332 332 332 332 332 331 330 329 328 328 329 330 331 332 332 333 332 332 332 332 332 332 332 332 333 332 332 332 332 331 331 332 332 331 332 332 332 333 333 333 332 332 332 331 331 332 331 331 331 330 328 329 331 331 330 330 330
330 329 329 330 330 330 330 330 329 329 329 328 327 326 326 327 328 328 329 330 330 330 330 330 331 331 331 331 332 332 332 331 331 331 331 331 331 331 330 331 331 332 332 332 332 333 332 332 332 331 331 331 331 331 330 328 328 328 329 331 330 329
328 327 327 327 328 328 327 327 327 327 327 326 325 325 325 326 326 326 327 328 328 328 328 328 329 329 329 330 330 331 331 331 331 331 331 331 331 331 331 331 331 331 331 331 331 331 332 332 332 332 331 331 330 330 329 329 328 328 328 329 330 330
324 324 324 325 326 326 326 326 326 325 325 324 324 324 325 325 324 325 325 326 326 326 326 326 326 327 327 328 328 329 330 330 330 330 330 330 331 331 331 331 331 331 331 331 330 330 330 330 331 332 332 331 329 329 329 328 328 328 328 328 329 329
321 322 322 322 323 323 323 324 323 323 323 322 322 323 324 323 322 323 323 323 323 323 324 324 325 325 325 326 327 328 328 329 329 329 329 330 330 330 330 331 331 331 331 330 329 329 329 329 329 330 330 330 329 328 328 328 328 328 328 328 329 329
320 320 320 320 320 320 320 321 320 320 320 320 320 321 321 320 320 320 320 320 321 322 322 323 324 324 324 324 325 326 327 327 327 328 328 328 329 329 329 330 330 330 330 329 328 328 328 329 329 329 329 329 329 328 328 328 328 328 328 328 328 329
319 318 318 318 318 318 318 318 317 318 318 318 318 318 318 318 318 318 318 318 319 319 319 320 320 321 321 321 322 323 324 324 324 325 325 326 326 327 328 329 329 329 329 328 327 328 328 328 328 328 328 328 328 328 328 328 328 328 328 328 328 329
317 316 316 315 316 316 316 316 316 316 316 316 316 316 316 316 315 316 316 316 316 316 316 316 316 317 318 319 319 320 322 322 322 323 323 323 324 325 326 326 327 327 328 327 327 327 328 328 327 327 327 328 328 328 328 328 328 328 328 328 328 328
315 315 315 314 315 315 315 315 315 315 315 315 315 314 314 313 313 313 313 313 313 313 314 314 314 314 315 317 317 318 319 320 321 321 321 321 322 323 323 323 323 324 325 325 325 326 326 327 327 327 327 328 328 328 328 328 328 328 328 328 328 328
315 314 314 314 314 314 314 314 314 314 314 314 313 313 312 312 311 311 311 311 311 311 311 311 312 312 313 314 315 316 316 316 318 318 318 318 319 319 320 319 319 320 321 321 322 322 323 325 326 327 327 327 328 328 328 328 328 328 328 328 328 328
315 314 314 314 314 314 314 314 313 313 313 312 312 311 311 311 310 310 309 309 309 309 309 309 310 310 311 312 312 313 313 313 313 314 315 315 316 316 317 316 316 316 317 318 319 320 320 321 322 324 326 327 327 328 328 328 329 328 328 328 328 328

ECMWFFLT2_925_thetae_102.txt.gz
Theta_e
343 342 342 341 341 339 335 335 338 339 340 340 341 340 340 340 340 340 340 339 339 340 340 340 339 338 337 336 334 331 329 330 332 332 331 326 321 323 324 325 327 329 331 331 332 332 332 332 333 333 332 332 334 336 336 336 334 334 333 331 334 331
342 341 341 340 340 339 336 335 337 339 340 340 340 338 339 340 340 340 339 340 340 340 340 340 340 339 339 338 336 334 331 330 330 331 332 328 322 321 323 324 326 329 330 331 333 335 335 333 333 332 332 333 336 337 336 337 335 335 334 332 334 327
341 341 340 339 339 338 337 336 335 337 339 340 339 338 340 340 340 340 340 340 340 339 339 338 338 337 336 336 335 335 334 331 329 329 330 331 326 320 319 322 325 327 330 331 334 338 338 337 335 332 333 335 337 336 336 337 335 335 334 333 334 327
340 339 337 337 337 337 336 336 336 336 337 339 339 339 340 340 340 340 339 340 339 338 338 337 336 335 335 335 334 335 336 333 330 329 331 335 333 325 320 322 322 325 329 332 334 336 337 338 338 336 336 337 337 336 337 337 335 335 334 334 334 327
338 336 335 335 336 337 336 335 335 336 337 338 337 338 338 338 339 339 338 338 338 338 337 337 336 335 336 336 335 335 336 336 335 333 334 336 335 332 331 329 325 326 331 333 334 334 335 337 338 338 338 337 336 336 336 336 336 335 334 335 333 326
337 336 336 335 336 336 336 335 335 336 338 337 336 337 337 337 338 338 337 337 338 338 337 336 337 337 337 337 337 337 336 336 336 335 335 335 336 336 335 333 330 329 331 333 334 334 335 336 337 337 336 337 336 336 336 336 336 336 335 335 334 328
336 336 336 336 337 337 336 336 336 337 338 337 336 336 336 336 336 336 336 336 336 336 336 337 338 339 338 338 338 338 338 337 336 335 335 335 336 336 335 334 333 331 328 330 334 334 334 335 336 336 336 336 336 336 336 335 335 335 335 335 335 331
336 336 336 337 337 337 336 336 336 337 337 337 336 335 336 336 336 336 336 336 336 336 337 338 339 339 339 339 339 340 340 339 339 338 337 336 336 335 335 335 335 334 329 327 330 334 334 334 335 336 336 336 336 336 336 336 335 335 335 335 335 334
336 336 336 337 337 336 337 337 337 337 336 337 337 336 336 336 336 336 337 337 337 338 338 339 339 340 340 340 341 341 341 341 341 340 340 339 339 337 336 335 335 335 334 329 328 331 333 334 334 335 336 336 336 336 336 336 336 335 335 336 336 335
337 337 337 337 337 337 337 338 338 337 337 337 337 337 337 338 338 337 338 338 339 339 339 340 341 341 341 341 341 342 342 342 341 341 341 340 340 340 339 337 335 334 334 333 329 330 333 333 334 335 335 335 336 335 336 336 336 336 335 335 336 336
337 338 338 338 337 337 338 338 338 338 338 337 337 338 338 338 339 339 339 339 340 340 340 341 341 341 341 341 341 341 341 341 341 341 341 340 340 340 340 339 338 336 335 334 332 332 333 332 333 334 335 335 335 335 335 335 336 336 335 335 336 336
338 338 338 338 338 338 338 338 338 338 338 337 337 338 337 338 338 339 340 340 339 340 340 340 340 340 340 340 340 340 340 340 340 341 341 340 340 340 340 340 340 338 336 335 334 334 333 332 332 333 334 335 336 336 335 335 335 335 336 336 336 336
338 338 338 338 338 338 338 338 339 339 338 339 339 339 339 339 339 339 339 339 339 340 340 340 339 339 339 339 339 339 339 338 339 340 340 340 340 340 340 340 340 339 338 336 334 334 333 333 333 333 334 335 336 336 335 335 335 335 336 336 336 336
339 339 339 338 338 339 339 340 340 340 340 341 341 341 340 340 340 340 339 339 339 340 339 339 339 339 339 339 339 339 339 339 338 338 339 340 340 340 340 340 340 339 339 338 336 335 335 334 333 333 333 334 335 335 336 336 335 334 335 336 336 336
340 340 339 340 340 340 340 341 340 341 341 341 341 340 340 340 341 340 339 339 339 340 339 339 339 340 339 339 339 339 339 339 338 338 339 339 339 340 340 340 339 339 339 338 338 338 337 336 334 334 334 334 335 336 336 336 335 335 335 335 336 336
340 341 341 340 340 340 341 341 340 341 341 341 341 340 340 340 340 339 339 339 340 340 340 339 340 340 339 339 339 339 339 339 338 338 338 338 338 339 339 339 339 339 339 339 339 339 338 338 337 336 336 336 336 336 336 336 336 336 336 336 335 336
341 341 341 340 340 340 341 341 341 341 341 341 340 340 340 340 339 339 340 340 340 340 340 340 340 340 339 338 338 339 339 339 338 338 338 337 337 337 338 338 338 339 338 339 339 339 338 338 339 338 338 337 337 336 336 336 336 337 337 336 335 335
341 341 341 341 340 341 341 341 340 340 340 340 340 340 340 340 341 341 340 339 339 340 339 339 339 339 339 338 338 338 338 338 337 337 338 337 336 336 336 335 336 337 337 337 338 338 338 337 338 338 338 338 338 338 337 336 337 337 337 337 336 335
340 341 341 341 341 341 341 340 340 341 341 341 341 341 341 341 342 341 341 340 339 339 338 338 338 338 338 338 338 338 337 337 337 337 337 337 337 336 336 335 335 336 336 336 336 337 337 337 336 337 337 338 338 338 338 338 338 338 337 337 337 337
341 341 340 340 340 341 340 340 341 342 341 342 341 341 341 341 341 341 340 340 339 338 337 335 336 338 337 337 337 337 337 337 336 337 337 337 338 337 337 336 336 336 336 336 336 336 337 337 336 336 336 336 337 337 338 338 338 338 337 337 337 337
341 341 340 340 340 340 341 341 341 342 341 341 341 341 341 341 340 340 340 339 337 337 336 335 337 338 337 336 336 337 337 337 337 337 337 338 338 338 337 337 337 336 336 336 336 336 337 337 336 336 336 336 336 337 337 337 337 337 337 336 337 336
341 340 341 340 341 341 341 341 341 341 341 340 340 339 340 340 339 339 339 338 336 336 336 336 336 337 337 336 336 337 337 338 337 338 338 338 337 337 337 337 337 336 336 336 336 336 336 336 335 335 335 335 335 335 336 338 338 337 337 336 336 337
340 340 340 340 340 341 340 340 340 339 339 338 338 338 338 338 337 337 337 337 337 336 337 336 335 335 336 336 336 337 337 337 337 337 337 337 337 337 337 337 336 336 336 335 335 335 336 336 335 334 335 335 334 334 334 336 337 336 336 337 336 337
338 338 338 339 339 338 338 338 339 338 338 337 337 337 337 336 335 336 336 336 336 336 336 335 334 335 335 335 335 335 336 336 335 335 335 335 336 336 336 336 336 336 335 334 334 335 335 335 335 334 334 334 333 333 334 334 335 334 335 336 337 337
337 337 337 337 338 337 337 337 337 337 336 336 336 335 335 334 334 334 334 334 334 334 334 334 333 333 333 334 333 333 334 334 333 333 333 333 334 334 334 334 334 335 335 334 334 335 334 334 335 335 334 334 333 332 333 333 333 333 333 335 336 336
336 336 336 336 337 337 336 336 336 336 335 335 334 334 333 333 334 334 333 333 333 333 332 332 332 332 332 332 332 332 332 332 332 332 331 332 333 333 333 333 333 333 334 334 334 334 334 334 335 335 334 334 333 332 332 333 333 332 332 333 333 335
335 334 335 335 335 335 335 335 335 334 334 334 333 332 331 332 332 332 332 332 331 331 331 330 331 331 331 331 330 331 331 331 331 331 331 332 332 332 332 332 332 333 333 333 333 333 333 333 334 334 333 333 332 332 333 333 332 332 332 332 332 334
332 332 333 333 333 333 333 333 333 332 331 331 331 331 330 330 330 330 330 330 329 329 328 328 328 329 329 329 329 329 329 330 330 330 330 330 330 330 330 331 331 332 332 332 332 332 333 332 333 333 333 333 332 332 333 332 331 331 333 332 331 332
330 330 330 330 331 331 331 331 331 331 330 329 329 329 328 328 328 328 328 328 328 327 327 326 326 326 326 327 327 327 327 327 327 327 328 328 328 327 327 328 330 331 330 331 332 332 332 332 332 332 332 332 332 332 332 332 332 332 333 332 331 331
328 328 328 328 328 328 329 329 330 330 329 329 328 328 328 328 327 328 327 326 326 326 325 325 324 324 324 325 325 324 324 324 324 325 325 325 325 325 325 326 327 328 328 328 330 331 331 330 331 331 331 331 331 331 332 332 332 332 332 332 332 331
325 325 325 325 326 326 326 327 328 328 328 327 327 327 327 326 326 326 325 325 324 324 323 323 322 322 322 322 322 322 322 321 321 321 322 322 322 321 323 324 325 325 324 325 326 327 328 329 329 329 330 330 330 330 331 331 331 331 331 331 331 331
323 323 323 323 323 324 324 324 324 324 324 324 324 324 324 323 323 323 322 322 322 321 321 320 320 319 319 319 320 320 320 319 318 318 317 318 317 318 319 321 322 322 322 322 322 322 325 326 326 327 328 328 329 329 330 330 330 330 330 330 330 331
322 322 321 321 321 321 321 321 321 321 321 321 321 321 320 320 320 320 319 319 319 319 318 318 317 317 316 317 317 317 317 317 316 316 315 315 314 315 317 319 320 319 319 319 319 319 322 323 323 324 324 324 326 327 328 329 329 330 330 329 330 331
321 321 320 320 320 319 319 319 319 319 319 319 318 318 318 317 317 317 317 317 317 316 316 315 315 314 314 315 315 315 314 314 314 314 314 314 313 313 314 316 317 316 316 316 316 317 318 320 321 321 321 321 322 323 325 327 328 329 329 329 330 330
320 320 319 319 318 318 317 317 317 317 317 317 316 316 315 315 315 315 315 315 314 314 314 314 313 313 313 313 313 313 312 312 312 311 311 311 311 311 311 313 313 313 313 313 314 315 316 316 317 318 318 319 319 320 322 324 325 326 327 327 328 329
319 319 318 317 317 317 316 316 316 315 315 315 315 314 313 313 313 313 313 313 313 312 312 312 311 311 311 311 311 311 311 310 309 309 309 309 309 309 309 310 311 311 311 310 311 312 313 313 314 315 315 316 317 318 319 320 321 323 324 324 325 327
318 317 317 316 316 316 315 314 314 314 314 314 313 313 313 312 312 312 312 312 311 311 311 310 310 310 310 310 310 309 309 309 308 308 308 308 308 308 309 309 309 309 309 308 309 311 311 312 312 312 313 314 315 316 317 317 318 318 319 321 322 324

ECMWFFLT2_925_thetae_105.txt.gz
Theta_e
344 343 343 342 339 339 339 341 341 340 341 341 342 341 341 341 340 339 338 338 338 341 340 339 338 338 336 332 330 328 330 332 331 327 319 318 321 323 325 327 329 330 331 332 332 332 332 331 331 332 332 334 336 338 339 337 334 334 332 330 335 332
343 343 342 342 340 338 338 339 340 341 341 340 339 339 340 341 341 340 338 340 341 342 341 341 341 340 339 337 332 328 328 329 330 327 321 317 319 323 325 326 328 329 331 331 333 335 334 332 331 331 332 333 336 339 337 335 335 334 332 332 334 330
343 342 341 342 339 337 337 337 338 341 341 340 338 339 342 342 343 341 340 342 341 340 339 340 340 338 339 337 334 331 328 327 329 327 324 323 320 320 323 326 327 328 330 330 335 340 339 337 333 331 331 332 336 339 336 335 335 334 333 333 333 329
342 341 340 340 338 336 337 336 337 339 341 341 340 341 341 341 342 341 340 340 340 339 339 339 336 334 337 337 336 334 330 327 329 328 330 334 331 321 318 322 325 326 329 330 335 340 339 340 338 335 334 336 338 338 336 336 335 335 334 333 333 330
341 339 338 338 338 336 336 335 335 337 339 339 339 340 339 340 341 340 339 339 339 339 338 337 335 335 337 338 338 338 336 334 335 333 333 338 338 331 325 324 324 324 328 332 334 336 336 338 340 338 339 339 338 337 336 335 334 334 334 335 334 330
338 337 336 336 337 335 335 335 335 335 337 337 338 338 338 339 339 339 338 338 339 338 337 336 337 337 336 336 337 337 338 338 338 335 333 336 337 337 336 332 329 327 330 334 333 333 334 335 337 338 338 337 336 335 335 335 335 335 334 336 334 330
336 336 335 336 337 336 335 335 335 336 338 336 336 337 337 336 337 338 337 337 338 337 336 337 338 339 337 338 338 338 338 336 336 335 334 336 336 335 336 335 332 331 330 331 332 333 333 334 335 336 336 336 335 335 334 333 334 335 334 335 335 333
336 336 336 337 337 336 335 335 336 338 338 336 335 335 335 335 336 336 336 336 336 336 337 339 341 341 340 340 341 341 340 339 338 338 336 336 336 335 335 335 334 333 331 328 328 330 332 333 334 335 335 336 336 335 335 334 333 334 334 334 336 335
336 336 336 337 337 336 335 336 337 337 337 336 336 336 336 336 336 336 337 337 338 339 340 341 342 341 341 341 342 341 341 340 340 339 339 338 338 338 337 336 336 335 333 331 328 327 329 331 332 334 335 335 335 335 335 335 334 334 334 333 335 335
336 336 337 337 336 336 337 337 337 337 337 337 337 337 337 336 336 338 339 339 340 341 341 342 342 341 341 341 341 341 340 340 340 340 339 339 340 340 339 338 337 335 334 334 333 329 328 330 331 333 334 334 335 335 334 334 334 335 334 334 335 336
337 337 338 337 337 338 339 338 338 338 338 339 339 339 339 339 340 341 341 341 342 341 341 342 342 341 341 341 341 340 340 340 340 340 340 340 340 340 340 339 339 338 337 336 335 333 331 331 331 331 334 335 335 336 335 334 334 335 335 335 335 335
338 339 338 338 339 339 339 339 339 339 339 339 339 339 341 341 342 342 342 342 342 341 341 341 342 342 341 341 341 341 341 340 340 341 340 340 341 340 340 339 339 339 339 338 335 334 334 333 333 331 332 334 336 337 336 336 334 334 335 335 335 335
339 339 340 339 339 339 339 340 340 340 340 340 339 339 341 342 342 342 342 342 342 342 343 342 342 343 342 341 342 342 341 341 341 341 341 342 340 339 339 339 339 339 339 338 336 335 335 335 334 333 332 333 334 336 337 337 335 334 334 335 336 336
340 340 340 339 340 340 340 341 342 341 341 341 340 341 341 342 343 342 341 343 343 343 343 343 343 343 342 341 342 342 341 342 342 341 342 342 341 339 340 340 340 339 338 338 338 337 336 336 335 334 334 333 333 335 336 336 336 336 335 334 335 335
341 341 341 341 341 342 343 343 342 342 341 341 341 341 341 341 342 342 341 343 343 343 342 343 343 343 343 342 341 341 341 341 341 342 342 341 341 340 339 340 340 340 339 338 338 337 336 337 336 335 335 335 334 334 335 336 336 337 337 335 334 335
342 343 343 343 343 343 344 344 342 341 340 340 340 341 342 341 341 342 342 342 343 343 343 343 342 343 344 342 340 341 341 342 341 341 342 342 341 339 339 340 340 340 340 339 338 337 337 337 336 336 336 336 336 335 336 336 336 336 337 337 335 335
343 343 343 342 342 342 343 343 341 342 341 340 341 341 342 341 341 342 342 342 343 343 342 343 342 342 343 342 341 341 341 342 341 341 342 342 341 339 339 340 339 339 340 339 338 338 338 337 337 337 337 337 336 337 337 336 336 335 335 336 337 336
342 342 341 341 341 341 342 341 341 341 341 341 341 342 342 341 341 341 341 341 342 342 342 342 341 341 342 341 341 341 341 341 341 340 341 341 340 339 339 339 339 339 339 339 338 338 337 337 337 337 337 337 337 338 337 336 336 336 335 335 337 337
339 340 340 341 341 341 341 340 340 340 339 341 341 341 341 340 341 340 341 341 342 342 341 340 340 341 341 340 340 341 341 340 340 340 341 341 340 340 340 341 340 339 340 339 339 338 338 337 337 337 337 338 337 337 337 337 337 336 336 336 336 336
338 340 340 341 340 340 340 337 338 338 337 339 340 340 340 340 341 340 340 341 341 342 340 338 340 341 341 340 341 341 341 341 340 340 341 340 339 339 340 341 341 340 339 339 338 338 338 338 337 337 337 337 338 338 338 338 338 337 336 335 335 335
340 340 340 340 338 337 338 335 335 336 338 339 339 339 340 340 340 340 341 341 341 341 340 339 340 341 341 341 340 341 341 341 340 339 338 338 338 338 339 340 340 339 339 338 338 337 337 337 337 337 336 337 338 338 338 338 338 337 336 335 335 335
338 338 337 337 335 335 337 337 337 338 339 339 338 338 339 340 340 341 341 341 341 341 341 341 340 339 340 340 340 340 339 338 338 337 337 337 337 337 338 339 339 339 338 338 338 337 337 337 337 337 336 336 337 336 337 337 337 337 337 337 336 336
337 337 335 335 337 337 338 339 341 340 339 339 339 338 339 339 340 340 340 340 340 339 339 339 338 337 338 339 339 338 336 337 337 337 337 337 337 336 336 338 339 338 337 336 336 336 337 337 337 337 336 336 336 335 335 337 337 336 336 336 335 335
336 337 336 336 338 340 340 340 341 340 339 339 339 338 338 338 338 338 338 337 337 337 336 336 336 335 336 337 337 337 336 336 336 336 336 336 337 336 335 336 338 338 336 336 335 335 337 337 336 336 335 335 335 333 334 335 336 335 335 335 335 335
334 336 336 336 339 339 339 340 340 339 338 338 338 337 337 337 337 337 336 336 335 335 335 334 334 334 334 335 335 335 335 335 334 334 334 334 335 335 335 335 336 336 336 336 335 335 336 337 336 336 335 334 334 333 333 334 335 334 333 335 335 334
334 334 335 338 340 339 339 339 338 338 338 337 337 336 337 337 336 336 336 335 334 333 333 333 333 333 332 332 332 333 334 333 333 333 333 333 334 334 334 334 334 334 335 335 335 335 334 335 336 336 336 336 335 334 334 334 334 333 333 334 334 333
335 334 335 337 338 338 338 337 337 337 337 336 336 335 335 335 335 334 334 333 332 331 331 331 331 330 330 330 330 331 332 331 332 332 331 332 332 331 331 331 332 333 333 333 334 334 334 333 334 335 335 335 335 335 336 335 334 333 333 333 333 333
334 334 335 335 335 336 336 335 336 336 335 335 335 334 333 333 333 332 332 332 331 330 330 329 329 328 328 329 329 329 329 329 329 329 328 329 328 327 328 329 330 331 331 331 332 333 333 333 333 333 333 333 333 334 335 336 335 334 334 333 332 332
333 333 333 333 333 333 333 334 333 333 333 333 332 332 331 331 331 331 331 330 330 329 328 328 327 326 326 327 326 326 326 326 326 325 325 326 325 325 325 327 328 328 328 329 329 330 330 331 332 332 332 332 332 332 332 333 333 334 334 334 333 332
331 331 330 330 331 331 332 332 332 332 332 331 331 331 330 330 330 330 329 329 328 327 326 325 325 324 324 324 324 324 324 323 323 323 322 323 323 322 323 324 325 326 326 326 326 327 327 329 330 330 330 330 331 331 332 332 332 332 332 332 332 331
329 328 328 328 329 329 330 331 331 331 331 330 330 330 329 329 328 328 327 327 326 325 324 323 323 322 321 321 322 322 321 321 321 320 320 321 320 321 321 322 323 324 323 323 324 324 325 326 327 327 327 327 328 328 329 330 331 331 331 331 331 331
327 326 326 326 326 327 327 327 328 328 328 328 327 327 327 326 326 325 324 324 324 323 322 321 320 319 319 319 319 319 319 319 319 318 319 319 319 319 319 320 321 322 321 321 322 322 323 324 324 324 324 324 324 325 326 327 328 329 329 330 330 330
325 325 325 324 324 324 324 324 325 325 324 324 324 324 324 323 323 322 321 322 321 321 320 319 318 317 317 317 317 316 316 317 317 317 317 317 317 317 317 319 319 319 319 319 319 319 320 321 320 321 321 321 322 322 323 324 325 325 326 327 328 329
324 324 323 323 322 322 322 322 322 322 322 322 321 321 321 320 320 320 319 319 319 319 318 317 316 315 315 316 316 315 315 315 315 315 315 315 315 316 316 317 317 317 317 317 316 317 318 318 318 318 318 318 319 320 321 322 322 323 323 324 325 326
323 323 322 321 321 320 320 320 320 320 320 320 319 318 318 318 318 317 317 317 317 317 316 315 314 314 314 314 315 314 314 314 313 313 314 314 314 314 315 315 315 315 315 315 315 315 316 316 316 316 316 317 317 318 319 320 320 320 320 321 322 322
322 321 321 320 319 319 318 318 318 318 318 317 317 316 316 316 316 316 316 315 315 314 314 314 313 313 313 313 313 313 313 313 312 312 312 312 312 313 313 314 314 314 313 313 314 314 314 314 314 314 315 315 315 316 317 318 318 318 318 319 319 320
321 320 319 318 318 317 317 316 316 316 316 316 315 315 315 315 315 315 314 314 313 313 313 313 312 312 313 312 312 312 312 311 311 310 310 311 311 311 312 312 312 312 312 312 313 313 313 313 313 313 313 313 314 315 315 315 315 316 316 317 317 318

ECMWFFLT2_925_thetae_108.txt.gz
Theta_e
342 341 340 338 338 341 341 342 342 342 342 342 342 341 341 341 340 339 339 338 338 338 337 337 338 335 333 329 326 324 324 321 315 313 313 314 315 317 323 326 328 329 330 331 332 331 330 329 327 326 325 326 329 332 334 335 334 332 330 330 331 331
343 342 341 339 339 341 341 341 342 342 342 341 342 341 340 340 339 338 337 338 340 341 340 340 341 339 337 333 329 325 325 326 319 314 314 314 315 318 323 326 328 328 329 330 330 333 332 330 328 327 326 327 331 335 335 335 335 333 331 331 333 333
344 343 341 340 339 340 341 341 342 343 341 341 342 340 340 341 340 337 338 341 342 342 342 342 341 341 340 334 331 328 325 326 323 321 322 319 315 317 320 324 327 327 329 329 330 336 338 335 332 329 328 326 331 338 339 335 333 332 332 333 334 333
344 343 341 340 339 339 339 340 342 343 342 341 341 341 341 343 342 339 341 343 341 340 340 340 339 340 339 335 333 328 324 327 328 329 330 329 323 321 320 319 323 325 326 327 330 338 342 340 338 335 332 329 332 338 339 335 333 332 333 334 333 332
344 343 341 338 338 339 338 338 341 343 342 342 342 342 343 343 342 341 341 341 340 339 340 338 336 338 339 338 337 333 331 332 334 333 332 335 335 332 329 325 324 325 324 325 330 336 339 339 340 339 338 336 336 339 338 336 335 333 332 333 333 332
343 343 340 337 337 338 337 337 340 341 342 342 342 341 341 341 341 340 340 339 339 339 338 337 338 338 338 338 339 338 338 337 338 336 332 337 340 338 337 335 330 330 328 329 332 334 335 336 336 338 339 339 338 338 337 335 334 334 333 334 334 334
341 340 339 337 337 336 336 337 339 339 340 340 340 339 339 340 340 339 338 339 339 338 337 337 338 338 337 337 338 339 340 339 339 339 334 336 339 337 336 336 333 332 331 331 332 331 332 333 333 334 336 337 337 336 335 334 333 333 334 334 334 335
339 337 337 337 335 335 336 336 337 338 338 338 338 338 338 339 339 338 338 338 338 337 337 338 339 339 338 338 338 338 339 338 338 338 336 335 337 335 334 336 335 334 333 332 331 328 329 330 331 332 332 333 335 336 335 334 333 333 333 333 334 335
336 336 338 337 335 335 335 335 337 337 338 337 336 337 337 337 337 337 337 337 338 338 338 340 341 340 340 340 340 340 340 339 339 338 338 336 336 337 337 337 337 336 336 334 333 331 329 329 329 331 332 333 333 335 335 335 335 334 333 333 333 334
336 337 337 337 336 335 335 336 337 337 337 336 336 336 336 335 336 337 337 338 339 339 340 341 341 340 340 340 340 340 340 339 339 339 339 338 338 339 338 338 338 338 337 336 335 334 334 332 329 329 331 333 333 333 333 333 334 333 333 333 333 334
336 337 337 337 336 336 337 337 337 337 336 336 337 337 336 336 337 338 339 340 340 340 340 341 340 340 340 339 339 339 339 339 339 340 339 339 339 339 339 339 339 338 338 337 337 335 335 334 332 332 331 332 334 333 333 333 333 333 334 334 334 334
337 337 337 337 337 337 338 337 338 337 336 338 338 338 338 338 339 340 340 340 341 340 340 340 339 340 340 340 339 338 338 339 340 340 340 340 340 340 340 338 338 338 338 338 338 336 335 335 334 334 333 333 333 335 336 335 335 334 334 334 334 334
338 338 338 338 338 338 338 338 338 338 339 340 340 340 339 339 340 341 340 340 341 340 339 339 338 340 341 339 339 339 339 340 340 340 340 341 341 340 339 338 338 338 338 338 338 337 337 337 336 335 335 334 333 334 336 336 336 335 334 333 333 334
339 339 338 338 338 338 337 338 338 339 340 340 339 340 340 340 341 340 339 339 340 340 340 339 339 341 341 339 339 340 340 340 341 341 341 341 340 339 339 339 339 339 339 339 338 337 338 338 337 336 336 336 334 334 334 334 335 335 335 334 334 334
339 338 338 338 338 338 338 338 339 340 340 339 340 340 340 340 340 340 340 340 340 340 341 340 339 341 340 339 340 340 340 341 341 341 341 341 341 340 339 339 339 339 340 339 338 338 338 338 337 337 336 336 336 335 335 335 335 335 335 335 335 334
339 338 338 339 339 338 338 338 340 341 341 341 341 340 340 340 339 340 340 340 341 341 341 340 339 341 340 340 340 340 340 341 341 341 342 341 341 340 339 339 339 340 339 340 339 338 337 337 337 337 337 337 336 336 336 336 336 336 336 336 335 335
339 339 339 340 339 338 339 339 340 341 340 340 340 340 340 339 339 338 339 340 341 340 340 340 339 340 341 340 341 341 341 341 341 341 342 341 340 340 340 339 339 339 339 339 339 339 338 338 338 337 337 338 337 337 337 337 336 336 337 336 335 335
339 339 339 340 339 339 340 340 339 341 341 339 339 339 338 339 338 338 338 339 339 338 338 339 339 340 341 340 340 340 340 341 340 341 341 340 339 339 339 339 339 339 339 340 339 339 339 338 338 338 338 338 337 337 337 336 335 335 336 336 336 336
339 339 339 340 340 339 340 339 339 340 339 338 338 337 338 338 338 338 338 338 338 338 338 339 340 341 341 340 340 340 340 340 340 340 340 338 338 338 338 338 338 339 340 339 339 339 338 338 338 338 338 337 336 336 336 336 337 337 336 337 337 336
339 339 340 339 339 338 338 339 339 338 336 336 337 337 338 339 338 338 337 338 339 339 338 339 341 341 341 340 340 340 340 339 339 338 338 338 338 337 337 337 338 338 339 338 338 338 338 337 337 337 337 337 336 336 336 337 337 337 338 338 337 337
338 339 339 338 338 337 338 338 337 337 336 336 338 338 338 339 338 337 337 338 340 340 340 340 340 341 340 339 339 339 338 338 338 338 338 338 338 337 336 336 337 337 338 338 337 337 337 337 337 337 337 336 336 336 337 337 337 338 338 337 336 336
338 339 337 336 337 337 337 336 334 335 336 336 338 337 336 337 337 338 338 339 340 339 339 338 338 339 339 338 338 338 337 337 338 337 337 337 338 338 337 335 336 337 337 337 337 336 336 336 337 337 337 337 337 336 336 336 336 337 336 335 335 334
338 338 337 336 336 336 335 335 334 334 335 335 335 335 336 337 338 339 339 339 338 337 337 336 336 337 337 337 337 337 336 336 336 335 335 336 336 337 336 335 336 336 336 336 336 336 335 336 337 337 336 338 338 337 338 337 336 335 334 335 335 335
337 337 337 336 335 335 336 335 335 335 335 336 335 335 337 337 338 338 337 337 336 335 335 335 335 335 334 335 335 335 335 335 335 334 334 335 335 334 334 334 334 334 335 335 336 336 335 335 336 336 336 337 337 337 339 338 335 334 334 335 337 337
337 337 337 336 335 336 336 336 336 336 335 336 336 334 335 336 337 337 336 335 334 334 334 333 332 332 332 333 333 333 333 333 333 332 332 333 331 331 331 332 332 333 333 334 334 335 335 334 334 335 336 336 336 336 337 336 335 335 333 333 335 335
336 336 337 336 336 336 337 336 335 335 334 333 333 333 334 336 336 336 335 333 332 332 332 330 330 330 330 330 330 330 330 330 330 329 330 329 327 328 328 329 330 331 330 331 332 332 332 332 333 334 334 334 334 334 334 335 335 335 334 333 333 333
335 335 335 336 335 335 335 334 333 333 333 331 332 334 335 335 335 334 333 332 331 330 329 328 328 328 328 328 328 327 327 327 327 326 326 326 325 325 325 326 327 328 328 328 329 330 330 330 331 332 331 331 332 332 333 334 335 335 335 334 332 332
334 334 334 334 334 334 334 333 333 333 332 332 334 335 334 333 333 332 332 331 330 329 327 327 326 326 325 325 326 325 325 324 324 324 324 323 323 323 323 324 324 325 325 325 325 327 327 328 329 329 328 328 329 329 329 330 331 333 334 334 332 331
332 332 332 332 333 333 333 333 333 332 333 333 333 333 332 332 332 331 330 329 328 327 326 325 324 324 323 323 323 323 323 322 322 322 322 322 321 321 321 322 323 324 323 322 323 324 325 326 327 326 326 326 326 326 326 327 328 329 330 332 332 331
331 331 331 332 332 333 333 333 333 332 332 332 332 331 331 331 330 330 329 327 326 325 324 323 322 321 321 321 321 321 321 320 320 320 320 320 320 320 320 321 322 322 321 321 321 322 323 324 323 323 323 324 324 324 324 325 325 326 327 328 329 328
329 329 330 330 331 332 332 333 332 332 332 331 331 331 330 329 329 328 327 326 325 323 322 320 319 319 319 319 318 318 319 318 318 318 318 319 319 318 319 320 320 319 320 320 319 319 320 321 320 320 320 320 321 322 322 323 324 324 325 325 325 325
328 328 328 328 328 329 330 330 330 330 330 329 329 328 327 327 326 325 325 324 323 321 320 318 318 318 317 317 317 317 317 317 317 317 317 317 317 317 317 319 318 318 318 317 317 318 319 319 318 318 318 318 319 319 320 321 322 322 323 323 322 322
327 326 326 326 326 326 326 326 327 326 326 326 326 325 325 324 323 323 322 322 321 320 318 317 316 316 316 316 315 316 316 316 315 315 315 316 316 316 316 317 317 316 316 315 316 317 317 317 317 316 316 317 317 317 318 319 319 319 320 320 320 320
325 325 324 324 324 323 323 323 324 324 323 323 323 322 322 321 321 321 320 320 319 318 316 316 315 315 315 315 315 315 314 314 314 314 314 314 315 315 315 315 315 314 314 314 315 315 315 315 315 314 315 315 315 316 317 317 316 316 317 317 318 319
324 323 322 322 322 321 321 321 321 321 321 320 320 319 319 319 319 318 318 317 317 316 315 314 314 314 314 314 314 314 313 312 312 312 313 312 313 313 313 314 314 313 312 314 314 314 314 313 313 313 313 313 313 314 314 313 313 314 314 315 316 316
323 322 321 320 320 319 319 319 319 319 319 318 318 318 318 317 317 316 316 316 315 315 314 314 314 313 313 313 313 312 311 310 310 310 311 311 311 312 312 312 313 312 312 313 313 313 312 312 312 312 311 311 311 312 312 311 311 312 312 312 313 314
321 320 319 319 318 318 318 317 317 317 317 317 317 317 317 316 315 315 314 314 314 314 313 313 313 313 312 312 311 311 310 309 309 309 309 309 309 310 310 311 311 311 310 311 312 311 311 311 311 311 311 310 311 311 311 310 310 311 310 311 311 312

ECMWFFLT2_925_thetae_111.txt.gz
Theta_e
338 338 338 339 339 342 342 342 342 342 342 342 341 341 340 340 339 339 338 337 336 336 336 336 335 333 330 326 324 322 317 312 310 311 311 313 319 323 326 327 328 329 330 330 329 328 325 323 324 326 328 328 327 326 328 332 335 334 332 333 331 330
338 338 338 337 339 341 342 342 342 341 341 341 341 341 340 339 339 338 337 338 338 338 339 339 339 337 333 329 325 322 320 315 313 312 310 313 317 321 325 326 327 328 328 329 329 329 327 325 323 322 323 321 323 329 331 330 333 336 333 330 330 331
337 337 337 337 339 341 341 341 341 341 341 341 341 341 340 339 338 337 338 340 341 340 342 340 340 340 335 331 326 323 325 324 321 318 315 315 317 318 320 323 325 325 326 326 329 332 329 329 330 328 326 324 326 333 336 331 331 335 333 331 332 333
338 337 337 338 339 340 340 340 340 340 341 341 341 340 339 338 336 338 340 341 341 341 341 340 342 342 336 334 329 326 330 331 328 327 327 329 327 324 320 319 322 323 323 322 329 335 335 337 338 337 336 334 332 333 337 335 332 333 333 333 333 333
338 337 337 338 339 339 339 339 340 340 341 340 340 340 341 340 339 340 341 339 340 340 340 339 340 340 337 336 335 334 335 335 333 332 333 336 335 334 330 328 328 327 326 324 327 333 335 338 339 340 339 337 336 335 337 337 336 335 334 333 333 333
339 339 337 336 338 339 339 338 339 340 340 340 340 342 343 342 341 341 340 339 339 340 340 338 337 338 338 339 338 337 338 337 338 336 335 336 337 337 336 335 333 331 330 329 329 331 332 333 335 338 338 336 336 336 336 336 336 335 334 333 333 333
340 338 335 336 338 340 340 338 338 340 340 340 341 342 343 342 341 340 340 340 338 338 339 339 339 340 340 340 339 337 339 339 339 339 338 337 337 338 337 335 335 334 332 332 332 332 331 331 331 335 336 334 334 335 336 336 335 334 333 334 334 334
338 335 335 336 338 339 340 339 338 340 339 340 341 340 340 340 340 339 339 338 337 338 339 338 339 339 339 339 338 337 339 340 339 339 340 339 337 338 338 337 337 337 335 335 335 334 333 331 331 333 334 332 332 332 333 336 335 334 334 334 334 334
337 336 337 336 336 337 339 339 339 340 339 339 339 339 339 339 339 338 338 337 337 339 338 337 338 338 338 338 338 338 339 339 339 338 339 338 336 337 338 337 337 337 337 337 336 335 333 332 332 332 333 332 332 331 332 334 334 335 334 333 334 333
338 337 336 335 335 336 338 339 339 339 339 338 338 339 339 338 338 337 337 336 337 339 338 337 339 339 339 339 339 339 338 339 338 338 338 338 337 337 337 336 337 338 337 337 337 336 335 335 333 333 334 333 333 332 332 333 333 333 333 333 334 334
337 336 335 335 336 336 337 337 337 338 337 337 337 338 338 337 336 336 336 335 337 339 339 339 340 340 339 339 339 338 338 338 338 338 338 338 338 338 338 338 338 338 337 337 337 337 337 336 335 335 336 335 334 333 333 333 333 332 332 332 333 334
335 336 336 336 336 336 335 336 336 337 337 337 336 335 336 336 336 336 336 337 338 339 339 340 340 339 339 339 338 337 338 338 338 339 339 339 340 340 339 339 338 338 338 337 337 337 337 337 337 337 337 336 335 334 334 334 334 334 334 334 333 333
336 337 337 336 336 336 336 337 337 336 337 337 336 336 336 337 337 337 338 339 339 339 339 340 339 339 340 339 338 338 338 338 339 340 340 340 341 340 339 339 338 338 338 338 339 338 337 337 337 337 336 336 336 336 335 334 334 334 334 334 334 334
338 338 337 336 336 337 337 337 337 336 338 339 338 337 338 338 339 339 339 339 339 339 339 339 339 339 340 339 338 339 339 339 340 340 341 341 340 340 339 338 338 338 339 339 339 339 338 337 337 337 336 336 336 336 336 336 335 335 334 334 334 334
338 338 337 337 337 337 338 338 338 338 339 339 338 339 339 339 339 339 339 339 339 339 340 340 339 339 340 339 339 339 339 340 340 340 341 341 340 340 340 339 339 339 339 339 339 339 339 338 337 337 337 336 337 336 336 336 336 336 336 335 335 335
338 337 337 337 337 337 338 339 338 338 339 338 338 339 340 340 339 339 338 339 339 339 340 340 339 340 340 339 339 339 340 341 341 341 341 341 341 340 339 339 339 339 339 339 339 339 338 338 338 337 337 337 337 337 337 336 336 336 336 336 336 336
338 337 338 337 338 338 338 339 338 338 339 340 340 340 340 340 339 339 339 339 340 340 340 339 339 340 339 339 339 339 339 340 341 341 341 341 341 339 339 339 339 339 339 339 339 339 338 338 337 338 337 337 337 337 337 336 336 336 335 335 336 336
338 338 338 338 338 338 339 340 339 338 339 340 340 340 340 339 339 338 339 339 339 339 338 337 338 338 338 337 338 338 338 338 339 340 340 340 338 338 339 338 338 337 338 339 338 338 338 338 337 337 337 337 336 336 336 335 336 336 335 336 336 336
338 339 339 339 339 339 340 340 339 339 339 339 338 339 339 338 338 337 338 339 338 337 337 337 337 337 337 337 337 337 338 337 338 338 338 338 337 337 337 336 336 337 337 338 337 337 337 337 336 336 336 336 335 335 335 335 335 336 336 336 336 337
338 338 339 339 339 340 339 339 339 339 338 338 338 337 338 338 338 337 338 338 337 337 337 337 337 337 337 337 337 337 338 338 338 337 337 337 337 337 336 335 336 336 336 336 336 336 336 336 336 335 335 335 335 334 334 334 335 336 336 336 335 335
338 338 339 338 339 339 339 338 338 338 337 337 337 337 338 338 337 337 338 338 337 337 336 336 337 337 337 337 337 337 337 337 337 336 336 337 337 336 335 334 335 335 335 335 335 335 336 336 336 336 335 334 334 333 333 335 336 336 335 334 334 334
338 339 339 338 338 339 338 338 337 337 337 338 338 337 338 338 337 337 337 336 336 335 335 335 336 336 336 337 336 336 335 335 335 335 336 335 334 333 333 333 333 333 333 333 334 334 333 334 336 335 335 335 335 334 334 336 335 334 333 333 334 334
338 338 339 338 338 338 337 338 338 337 337 337 337 336 337 337 337 336 335 335 334 333 334 334 334 335 335 335 335 334 333 333 333 334 334 333 332 331 331 331 331 331 331 331 331 332 331 331 333 334 334 335 336 337 337 335 332 331 332 332 333 334
339 338 338 338 337 336 336 337 338 337 337 336 336 336 336 336 335 334 334 333 332 332 332 332 332 333 333 333 333 332 331 331 331 331 331 330 329 329 329 329 329 328 329 329 329 329 329 330 331 331 333 335 335 336 336 334 332 332 331 331 331 332
338 338 337 337 336 335 335 335 336 336 335 335 335 335 335 335 334 333 332 332 332 331 330 330 330 330 330 330 330 330 329 328 328 328 328 327 326 326 326 326 326 326 326 327 328 327 327 328 328 328 330 332 333 334 333 331 331 332 330 330 331 330
338 337 336 335 335 336 335 335 335 335 334 333 333 334 334 334 333 332 331 331 330 329 329 329 328 328 327 326 326 327 327 326 325 325 324 324 324 324 324 324 324 324 324 324 325 326 326 326 326 325 326 328 329 330 329 328 330 330 328 329 329 328
337 337 336 336 336 336 336 336 336 335 334 333 333 333 334 334 332 331 330 329 328 328 327 327 326 326 325 324 324 324 324 324 323 322 322 321 322 322 322 322 322 322 322 322 323 324 324 324 324 323 322 323 324 323 324 326 327 327 327 327 326 325
337 337 336 336 335 336 336 335 335 334 334 334 333 334 334 333 332 331 329 328 327 326 325 325 324 324 323 323 322 321 321 322 321 321 320 320 320 321 321 321 320 320 320 321 321 321 321 321 321 320 320 320 320 320 321 323 323 324 325 326 324 324
335 336 335 334 334 334 334 333 333 333 333 333 333 333 332 332 331 329 327 326 324 324 323 322 322 322 322 321 320 320 319 319 319 319 319 318 319 320 320 319 319 319 319 319 319 319 318 318 318 318 318 318 318 318 319 320 321 321 322 324 324 322
333 334 334 333 333 333 333 333 333 333 333 333 332 332 331 330 329 327 325 323 322 321 320 320 320 320 320 319 318 318 317 317 317 317 317 317 318 318 318 317 317 317 317 317 318 317 316 316 316 316 316 316 316 317 318 319 319 319 319 321 321 320
331 332 333 333 333 333 333 333 332 333 332 332 331 330 329 328 327 326 323 321 320 319 319 318 318 317 317 317 316 316 316 316 316 316 316 316 316 316 316 315 315 315 315 316 316 315 315 315 314 314 314 314 315 316 316 316 316 316 317 317 317 317
330 331 332 332 332 332 332 332 332 331 331 330 329 328 327 326 326 325 322 320 319 318 317 316 315 315 315 315 315 315 315 314 314 314 315 315 315 315 314 312 313 314 314 314 314 314 313 313 312 312 312 313 313 313 313 313 313 313 313 314 314 315
327 328 329 330 330 330 330 330 329 329 328 328 327 325 324 323 323 322 320 318 318 317 316 315 315 315 315 314 314 313 313 313 313 313 313 313 313 314 312 311 312 313 313 312 312 312 312 312 311 311 311 311 312 311 310 311 311 311 311 311 312 313
325 325 326 327 327 327 326 326 326 326 325 324 324 323 322 321 320 319 318 317 316 315 314 314 314 314 314 313 312 311 311 311 311 311 311 312 312 313 312 310 312 312 312 311 311 311 311 310 310 310 310 311 310 309 309 309 309 309 310 310 311 311
323 323 324 324 324 324 323 323 323 323 322 322 321 320 320 319 319 318 317 316 315 314 314 314 314 313 313 311 310 309 309 310 310 309 310 310 311 311 310 310 310 311 311 310 310 310 310 309 309 309 310 310 308 307 307 307 307 308 307 307 307 307
322 322 322 322 322 321 321 321 321 320 320 319 319 319 318 318 317 317 316 315 314 313 314 313 313 312 311 309 308 308 308 308 308 308 309 309 310 310 309 309 309 309 309 309 309 308 308 308 308 308 308 307 306 306 306 305 305 305 304 304 303 304
321 321 320 320 320 319 319 319 319 318 318 318 318 318 317 316 316 315 314 314 313 313 313 312 311 310 309 308 307 307 307 307 307 307 308 308 309 309 308 308 308 308 308 308 307 307 307 307 307 307 306 305 305 304 303 303 303 303 302 302 302 302

ECMWFFLT2_925_thetae_114.txt.gz
Theta_e
334 335 341 343 343 343 342 342 342 342 341 341 340 340 340 339 338 336 335 336 336 335 335 335 332 327 322 321 318 313 311 311 312 312 313 321 325 326 328 329 329 329 329 328 326 323 321 322 327 331 331 330 328 324 327 332 334 334 332 332 334 332
334 335 340 343 343 343 342 342 342 342 342 341 340 340 339 339 337 337 336 336 336 336 338 337 335 331 324 322 322 318 316 313 311 311 313 319 324 325 326 327 327 327 328 327 328 325 323 323 325 326 326 324 324 322 326 332 334 335 334 332 332 331
335 335 340 343 342 343 342 342 342 342 342 341 341 340 338 338 337 337 337 337 338 339 340 339 337 334 328 324 325 326 324 319 316 315 315 317 320 322 323 324 324 325 324 324 329 330 326 325 327 329 329 329 331 330 329 332 334 335 334 332 331 331
336 336 339 342 342 342 342 341 341 341 341 341 341 340 338 337 336 337 339 340 340 340 339 339 338 337 334 329 329 330 330 328 327 328 327 324 322 321 320 321 323 324 323 322 328 332 331 332 335 336 336 336 337 335 332 334 335 336 336 334 332 332
336 336 337 341 341 341 341 340 340 340 340 341 340 339 337 336 337 339 341 340 340 340 338 339 340 340 338 336 335 335 335 334 334 335 335 334 333 331 328 327 328 328 328 326 326 328 329 332 334 334 334 334 337 337 336 336 336 336 337 336 335 333
335 335 337 340 341 340 340 339 340 340 340 340 339 339 337 337 338 340 340 339 339 339 339 340 340 340 339 338 338 337 337 338 337 337 336 336 336 337 336 334 334 333 332 330 330 330 330 332 332 332 332 331 334 336 337 336 335 336 337 336 334 333
334 334 337 340 339 338 338 339 339 339 339 339 339 340 340 339 340 341 339 339 339 339 340 340 339 339 339 339 338 337 338 338 338 338 337 337 336 337 337 336 336 336 335 334 334 334 335 335 334 334 333 332 332 334 336 337 336 336 336 334 333 333
335 335 337 338 336 335 336 337 338 338 338 338 340 341 341 341 340 340 339 340 340 339 340 340 338 338 338 338 337 337 339 339 338 339 338 338 338 337 338 337 338 338 337 337 337 337 336 336 336 335 335 334 333 332 334 335 336 336 335 334 334 334
336 335 336 336 335 336 337 337 337 337 337 339 341 341 341 341 340 340 339 340 340 339 339 339 339 339 338 338 338 338 339 339 339 339 339 340 339 338 339 339 338 338 338 338 337 337 336 336 336 336 335 335 335 333 333 333 333 335 334 333 333 333
333 333 335 336 337 339 339 338 338 337 338 340 340 339 340 341 340 339 339 338 338 338 339 339 339 339 339 339 339 339 339 339 339 339 339 340 339 338 339 339 339 338 338 337 337 337 337 337 336 336 336 336 336 335 334 333 333 334 333 333 332 332
332 334 336 337 338 339 340 339 339 339 339 340 340 339 340 339 339 338 337 337 337 338 339 338 339 339 339 339 339 338 338 338 338 338 338 339 338 339 339 339 338 338 337 338 338 338 338 337 336 336 336 336 337 336 335 334 334 334 334 334 334 334
334 336 337 338 338 338 339 340 340 339 340 339 339 339 339 338 338 337 337 337 337 338 339 339 339 339 339 339 338 338 337 338 338 339 339 339 339 339 340 339 338 338 338 338 338 338 338 338 337 337 336 336 336 336 336 335 335 334 334 334 334 334
336 336 337 337 337 337 338 340 339 338 339 339 338 339 338 338 337 336 337 338 338 338 339 340 339 338 339 339 338 338 338 338 339 340 340 340 340 340 340 339 338 338 338 338 338 338 338 338 337 337 337 336 336 336 336 336 336 335 335 335 334 334
336 336 337 337 337 337 338 338 337 336 337 337 338 338 337 337 337 337 338 339 338 339 339 339 338 338 339 339 338 338 338 339 339 340 341 341 340 340 339 338 338 338 338 338 338 338 338 338 338 337 337 337 337 336 336 336 336 336 335 335 335 335
337 336 336 336 336 337 337 337 337 337 337 336 337 337 337 337 338 338 338 339 339 339 339 339 338 338 338 339 339 338 339 340 340 340 341 341 340 339 339 338 338 338 338 338 338 338 338 338 338 337 337 337 337 336 336 336 336 336 335 335 335 335
337 336 337 336 336 336 336 337 337 337 337 337 338 338 338 338 338 339 338 338 338 339 339 340 339 338 339 339 338 339 339 339 340 340 341 341 340 340 338 339 339 338 338 338 338 338 338 337 337 337 337 336 336 336 336 335 335 335 335 335 335 335
337 337 337 336 336 337 337 337 337 337 338 338 338 339 339 339 338 338 338 338 339 339 340 339 339 339 339 339 339 339 338 339 340 340 340 340 339 338 338 338 337 337 337 337 337 337 336 336 337 336 336 335 335 335 335 334 334 335 335 335 335 335
337 337 336 337 337 337 337 337 337 338 338 337 338 339 339 339 338 338 339 339 339 339 339 338 338 338 338 338 338 338 338 338 339 339 338 338 337 337 336 336 335 335 336 336 336 335 335 336 335 335 335 334 333 333 333 333 334 334 335 336 336 336
337 336 337 337 337 338 338 338 338 338 338 338 339 339 339 338 338 338 339 339 338 338 337 337 337 337 336 337 338 337 337 337 337 337 337 337 336 336 335 335 334 334 335 335 334 334 335 335 334 334 334 333 332 332 332 333 334 334 335 335 335 335
337 337 337 337 337 338 338 338 338 339 338 339 339 339 339 338 338 338 338 338 337 336 337 337 337 337 337 337 337 337 337 337 336 336 336 336 335 334 334 334 334 334 334 334 333 333 334 334 334 333 332 332 332 332 333 334 333 332 332 332 333 333
337 338 337 337 337 338 339 338 338 338 338 338 338 338 338 337 337 338 337 336 336 336 336 337 336 336 336 336 336 335 336 336 335 335 335 334 333 332 333 333 333 333 332 333 332 332 332 333 332 332 332 331 331 333 335 334 331 330 331 331 331 332
338 338 338 338 338 339 339 338 338 338 338 337 337 338 338 337 337 336 335 335 335 336 336 336 336 335 335 335 334 334 334 334 334 333 333 332 332 331 331 331 331 331 331 331 329 329 330 331 330 330 331 332 333 334 334 332 329 329 330 331 331 330
337 338 339 339 339 339 339 338 338 338 337 337 337 337 337 336 335 334 334 334 334 334 334 334 334 334 334 333 332 332 332 332 332 332 331 331 330 329 328 328 328 329 329 329 328 327 328 328 328 329 331 333 335 335 333 331 327 327 328 330 330 328
338 338 339 339 339 339 338 338 338 337 337 337 336 336 335 334 332 332 332 332 332 332 332 333 332 333 332 330 330 330 330 330 329 329 329 328 327 326 326 325 325 326 327 327 326 326 326 326 326 328 331 332 332 333 333 328 325 326 327 328 329 326
338 338 338 338 338 338 337 337 337 336 336 336 335 334 333 331 330 330 330 330 330 330 330 331 331 331 330 329 329 329 328 328 327 326 326 325 324 324 323 323 323 323 324 325 325 324 325 324 323 325 327 329 329 331 330 326 325 328 326 325 327 325
338 338 338 337 336 337 337 336 336 336 335 334 333 332 331 330 329 329 328 328 328 328 328 329 328 328 328 328 327 327 328 327 325 324 323 322 322 322 322 321 321 321 322 323 323 323 322 322 321 321 322 323 325 326 325 324 326 327 324 324 325 322
337 337 337 335 334 335 336 336 336 335 335 333 333 332 330 329 328 327 327 327 327 327 327 327 326 326 326 326 325 325 325 325 323 322 321 321 321 320 320 320 319 320 320 320 320 319 318 319 319 318 318 319 320 321 321 321 322 322 323 323 322 320
336 336 336 335 334 335 336 335 335 335 334 333 333 331 329 328 327 327 326 326 325 325 325 325 324 324 324 323 323 322 322 321 321 320 320 320 319 319 319 318 318 318 317 317 317 316 316 316 316 316 316 317 317 318 318 317 316 318 321 321 319 317
334 334 334 334 334 335 335 335 334 334 333 333 333 330 328 327 326 326 325 324 324 323 323 323 322 322 321 321 320 320 319 319 319 318 318 318 318 317 317 316 317 317 316 315 314 315 314 314 314 314 314 314 314 315 315 314 313 314 317 318 317 315
334 333 334 334 335 335 335 335 334 333 333 333 332 330 327 326 325 325 324 322 322 321 321 320 319 319 319 318 318 317 317 317 317 316 316 317 316 315 315 315 315 315 314 313 313 313 312 312 312 312 311 311 311 312 312 312 311 312 313 314 314 313
334 334 334 335 335 334 334 334 333 333 333 332 331 329 326 324 323 323 321 320 320 319 318 317 317 317 316 316 316 315 315 315 315 315 315 314 314 313 313 314 314 313 313 312 312 311 310 311 311 310 309 310 310 310 310 310 310 310 310 310 311 311
333 333 333 333 333 333 333 333 333 333 332 331 330 327 325 322 321 321 319 318 318 317 316 315 315 315 314 314 314 314 314 314 314 314 314 313 312 312 313 312 312 312 311 311 310 310 310 310 310 308 308 308 307 307 307 307 307 306 306 306 306 307
332 332 332 332 332 332 332 333 332 331 331 330 328 326 324 321 320 319 319 318 317 315 315 314 313 313 312 312 312 312 312 312 312 312 312 311 311 312 312 311 311 310 310 309 309 309 309 309 308 307 306 306 305 305 304 304 304 303 303 303 303 303
330 330 331 331 331 331 331 331 330 330 329 328 327 325 323 320 319 319 318 317 315 315 314 314 312 311 310 310 311 310 310 310 311 311 311 310 310 311 311 310 310 309 308 308 308 308 308 307 306 305 305 304 303 303 302 302 302 301 301 302 302 302
326 327 328 329 329 329 329 328 328 327 326 325 324 323 321 319 319 318 318 316 314 314 313 312 311 309 308 309 309 309 309 309 310 310 310 309 309 309 309 308 308 308 307 307 306 307 306 305 304 304 303 302 302 301 300 300 299 299 300 300 301 301
325 325 326 326 326 326 325 325 325 324 323 322 322 321 319 318 318 318 317 315 314 313 312 310 309 308 307 308 308 308 308 308 309 309 309 308 308 308 308 307 307 307 306 306 306 305 305 303 302 301 301 300 300 299 298 298 298 298 298 299 299 299
323 323 323 323 323 322 322 322 322 321 321 320 320 319 318 317 317 316 315 315 314 312 311 309 308 307 307 307 307 307 307 308 308 308 308 307 307 307 306 306 306 305 305 305 304 304 303 302 300 299 298 297 298 298 298 298 297 297 298 298 298 298

ECMWFFLT2_925_thetae_117.txt.gz
Theta_e
334 337 339 339 340 341 341 341 341 340 341 340 340 340 339 338 336 333 334 334 334 334 333 329 324 321 320 318 315 313 312 313 313 314 320 325 327 329 329 329 329 328 328 327 326 322 322 325 327 330 331 329 325 325 328 332 334 334 334 333 331 333
338 341 341 342 341 342 342 341 341 341 341 341 341 341 339 337 335 335 335 335 335 336 335 332 326 323 323 323 320 315 312 312 312 313 320 325 326 327 327 327 327 327 326 326 327 324 321 322 324 327 329 327 329 333 332 331 333 334 335 335 332 332
340 343 342 342 341 342 342 341 341 341 341 340 341 340 338 337 336 336 335 336 337 338 337 334 331 329 326 326 327 322 316 314 312 313 318 323 324 325 326 325 324 324 323 324 328 329 325 323 326 330 332 331 333 336 335 334 334 334 335 336 335 333
340 342 342 342 342 343 342 341 341 341 341 340 340 338 338 336 335 336 337 338 339 338 337 335 336 336 331 329 331 331 327 324 321 319 320 322 322 322 322 322 323 324 325 324 327 329 328 329 331 333 332 331 331 333 335 336 336 336 335 336 337 335
340 342 342 342 342 343 341 341 341 341 341 340 340 338 337 335 336 338 339 339 338 338 338 337 337 338 336 334 335 336 335 334 332 331 331 330 330 328 327 327 328 329 330 329 329 330 330 332 333 333 332 332 331 331 333 334 335 337 336 337 337 336
340 342 342 342 342 342 341 341 341 341 341 340 339 338 336 335 337 339 340 339 339 338 337 337 337 338 338 338 337 337 337 337 336 335 335 336 336 335 333 333 334 334 333 333 333 334 334 335 335 334 334 333 332 331 331 331 333 335 336 336 336 335
338 341 341 341 341 341 340 340 341 341 340 340 339 337 336 336 338 340 340 339 339 339 338 337 337 337 338 339 337 337 337 338 337 336 336 336 336 335 335 335 336 336 336 336 336 336 336 336 336 336 335 334 333 333 332 331 331 332 333 335 335 334
334 339 341 340 339 339 340 340 340 340 339 339 337 336 336 338 339 340 339 339 339 339 339 338 338 337 338 338 338 337 337 338 337 337 337 337 336 336 337 337 337 337 337 337 337 337 337 337 336 336 336 335 335 334 334 333 332 331 332 333 334 333
331 337 340 338 339 339 339 339 339 338 338 338 336 336 338 339 340 340 340 340 340 339 338 338 339 338 338 338 337 337 338 339 338 337 338 338 337 338 338 338 338 338 337 337 337 337 336 337 336 336 336 336 336 336 335 334 334 333 333 333 333 332
329 335 338 338 339 339 338 338 338 337 336 337 338 339 340 340 340 340 340 340 340 339 338 338 339 339 338 338 338 338 339 339 339 338 338 338 338 339 339 339 339 338 337 337 337 337 337 337 337 336 336 336 336 336 336 335 335 335 334 334 334 333
329 333 337 338 337 336 336 337 336 336 336 337 339 341 341 341 340 340 339 339 338 338 338 338 339 339 339 339 339 339 338 338 338 338 338 339 339 340 340 339 338 338 337 337 337 337 337 337 337 336 336 336 336 336 335 335 335 335 335 335 334 334
330 333 336 335 334 335 335 335 335 336 337 338 340 341 340 341 340 340 339 338 338 338 338 338 339 339 339 339 339 338 338 337 338 338 339 340 340 340 340 339 338 338 338 337 337 337 337 337 337 336 336 336 336 336 336 335 335 335 335 335 335 335
331 333 334 332 334 335 335 336 337 337 338 339 340 340 340 340 340 339 338 337 337 338 338 339 339 339 339 339 338 337 337 337 338 339 340 340 340 340 339 338 338 338 337 337 337 337 337 337 337 336 336 336 336 336 336 335 335 335 335 335 335 335
332 332 333 334 336 337 338 338 339 339 340 339 340 339 339 339 338 337 337 337 338 337 338 339 339 339 338 338 338 337 337 338 339 339 340 340 340 339 339 338 338 337 337 337 337 336 336 337 336 336 336 336 336 335 335 335 335 334 335 335 335 335
335 334 335 336 337 338 338 339 339 340 339 339 339 339 339 338 337 337 337 338 338 338 338 338 339 338 337 338 338 338 338 339 339 339 340 341 340 339 338 338 338 337 336 336 336 336 335 335 336 336 336 335 335 334 334 334 334 334 334 334 334 335
336 335 336 337 337 338 338 338 339 339 338 338 339 338 338 338 338 337 338 339 339 339 339 338 338 337 337 339 338 338 338 339 340 340 340 340 340 339 338 338 337 336 335 335 335 334 334 334 334 335 335 334 333 333 333 333 333 333 334 335 335 335
336 336 336 337 337 337 337 338 339 338 337 338 338 338 338 338 338 338 339 339 339 339 339 339 338 338 338 338 338 338 338 339 340 339 339 338 338 337 337 337 336 335 334 335 334 334 334 334 334 334 334 333 332 332 332 332 333 333 334 334 334 333
336 336 337 337 337 337 337 338 338 337 337 337 337 338 338 338 339 339 339 339 339 339 339 339 338 338 338 338 338 338 338 338 338 338 337 337 336 336 336 335 334 334 334 334 333 333 333 334 334 333 333 332 331 331 332 332 332 332 333 332 332 332
336 337 337 337 337 337 337 337 337 337 338 338 338 338 339 339 338 338 339 339 338 338 337 337 337 337 337 337 337 337 337 337 337 337 336 335 335 334 334 334 333 333 333 332 332 332 333 333 333 332 332 331 331 332 332 331 331 331 330 330 331 331
336 338 338 338 338 338 338 338 338 338 338 338 338 339 338 338 338 337 337 337 337 336 336 336 336 336 336 337 337 337 337 336 336 336 335 334 334 333 333 333 332 332 332 331 331 331 331 332 332 331 330 330 331 333 332 330 330 330 330 329 329 329
337 338 337 338 338 337 338 338 338 338 338 338 338 338 337 337 337 336 336 336 336 336 336 336 337 336 336 337 337 336 336 335 335 334 333 332 332 332 332 331 331 330 330 330 329 329 330 330 330 330 330 329 329 332 333 331 328 327 328 329 327 327
337 337 337 337 337 337 338 337 338 337 337 337 337 337 337 336 336 336 335 336 336 336 336 336 336 336 335 335 335 335 334 333 333 332 331 331 331 330 329 329 329 329 328 328 327 326 328 329 329 328 329 330 330 331 332 330 327 325 326 327 326 324
336 337 337 337 337 337 338 337 338 338 337 337 336 336 336 335 335 335 335 334 335 334 335 334 334 334 334 334 333 333 332 331 331 330 330 330 329 327 326 326 327 327 327 326 325 324 325 326 326 327 328 331 332 332 332 329 324 324 325 326 325 323
336 336 337 337 337 338 337 338 338 337 337 336 335 335 334 334 334 334 333 333 333 333 333 333 333 333 333 332 332 331 330 330 329 328 328 327 325 324 324 323 324 324 325 325 324 323 322 323 324 325 327 329 328 329 331 326 322 323 324 324 323 321
337 337 337 337 337 338 337 337 337 336 336 335 333 332 332 332 331 332 331 330 330 331 332 331 331 330 330 330 329 328 328 327 326 325 325 324 323 322 321 321 321 322 322 323 322 321 321 320 320 322 323 325 326 326 327 323 322 325 323 322 321 319
337 337 337 337 338 338 338 337 336 336 335 333 331 330 330 329 329 329 329 328 328 329 329 329 328 327 327 327 327 326 325 324 323 322 322 321 321 320 320 319 319 320 320 320 320 319 318 318 318 319 319 320 321 321 320 319 321 324 321 320 321 319
336 337 337 337 336 336 337 337 336 335 334 332 331 328 327 328 328 327 326 326 326 326 326 326 325 324 324 324 324 323 323 322 321 321 320 319 319 318 318 317 317 317 317 317 317 316 315 316 316 316 317 317 315 314 314 314 316 318 318 319 318 315
335 335 335 335 334 334 336 336 335 335 333 332 330 327 326 327 327 326 325 325 324 323 323 323 323 322 322 322 321 321 320 320 319 319 318 318 317 317 316 316 315 315 314 314 314 314 313 313 313 312 313 314 312 311 311 310 310 313 315 315 314 311
333 332 333 334 333 333 335 336 335 335 333 331 329 327 326 326 325 325 324 323 322 321 320 320 320 320 319 319 319 319 319 318 318 317 316 316 315 316 315 314 313 313 312 312 312 312 311 310 310 310 310 310 309 309 308 308 307 308 310 311 311 309
333 331 333 334 333 333 333 334 334 334 332 330 328 326 325 324 324 324 323 321 320 319 318 318 317 317 317 317 317 317 317 316 316 315 314 314 314 314 313 312 312 311 311 310 310 310 309 309 308 307 307 307 306 306 306 306 305 305 306 307 306 305
333 331 332 332 333 332 331 332 334 334 332 329 327 325 324 323 322 322 321 319 318 317 317 316 316 315 315 315 315 315 315 314 314 313 313 313 313 312 311 311 310 309 310 310 309 308 307 307 306 306 305 304 303 303 303 303 302 303 303 303 303 302
331 331 332 332 333 333 331 332 333 333 331 329 327 326 324 322 321 321 319 317 316 316 315 314 314 314 314 314 314 314 314 313 313 312 312 312 312 311 310 309 309 309 309 309 307 307 306 305 304 304 303 302 301 301 301 301 301 301 301 301 301 300
330 331 332 332 333 332 331 332 333 333 331 328 326 326 325 323 321 320 318 316 316 314 314 313 312 312 312 312 312 313 312 312 311 311 311 311 310 310 309 308 308 308 308 307 306 305 304 304 303 302 301 300 299 299 299 299 299 299 299 299 299 299
331 331 332 332 332 331 332 332 333 332 330 328 326 325 324 322 320 319 317 316 315 314 313 311 311 310 310 311 311 311 311 310 310 311 310 310 309 308 308 307 307 307 306 305 305 304 302 301 301 299 298 298 297 297 298 298 298 298 298 298 298 298
331 331 331 331 331 332 332 332 331 331 329 327 326 325 323 321 319 318 317 316 314 313 311 310 309 309 309 310 310 310 310 309 309 309 309 309 308 307 307 306 306 305 304 304 303 301 299 298 298 297 297 297 297 297 297 297 297 297 297 297 297 297
330 330 331 330 331 331 331 330 330 329 327 326 325 323 321 319 318 317 316 315 312 311 310 309 308 308 309 309 309 309 309 308 308 308 308 307 307 306 306 305 305 304 303 302 300 298 296 296 296 296 296 297 297 296 296 297 296 296 296 297 297 297
328 328 329 329 329 330 329 328 327 326 325 324 323 322 320 318 316 315 314 313 311 309 308 308 307 308 308 308 308 308 308 308 307 307 307 306 306 306 305 304 304 303 301 299 297 296 295 296 296 296 296 296 297 297 296 296 296 296 296 296 296 297

ECMWFFLT2_925_thetae_123.txt.gz
Theta_e
339 338 336 335 337 339 339 340 340 341 341 341 341 340 339 337 332 330 331 329 325 322 322 322 321 318 315 314 313 313 316 320 325 326 328 329 329 329 328 327 326 325 325 324 324 324 325 326 327 327 329 330 330 331 332 333 334 333 334 334 335 336
339 336 335 337 338 339 339 340 340 341 341 341 340 339 339 336 334 333 332 330 326 323 324 327 327 321 318 316 313 313 315 318 323 325 327 328 328 328 327 326 325 324 324 325 326 324 324 324 326 328 330 331 330 331 331 331 331 332 334 335 335 336
338 335 335 338 339 338 338 340 341 342 342 341 340 340 339 336 335 334 333 331 327 325 330 334 332 327 324 320 315 312 313 316 321 325 326 327 326 326 324 323 324 324 325 327 327 327 326 327 328 330 331 331 331 331 330 330 330 330 331 333 335 335
337 335 336 338 338 338 338 340 341 342 342 341 340 340 339 335 334 334 335 333 330 330 334 337 336 334 331 329 326 319 315 314 318 322 323 324 323 322 322 325 327 327 328 329 330 330 331 331 331 331 331 331 331 331 331 331 330 330 330 331 333 334
336 335 337 338 338 338 339 340 341 342 342 341 341 340 338 335 334 335 337 335 334 335 336 337 337 338 336 336 335 330 324 319 319 321 322 323 323 325 328 330 331 331 331 331 331 331 332 333 332 332 332 332 332 332 333 333 332 331 331 331 332 333
335 336 337 337 338 339 340 340 342 342 342 341 341 340 338 335 335 336 337 336 335 336 337 337 338 339 339 338 337 335 333 330 329 329 329 329 330 331 333 333 333 334 333 333 333 333 333 333 333 334 335 334 334 334 335 335 334 333 332 332 332 333
335 337 337 337 338 340 340 341 341 342 341 341 340 339 338 336 336 337 337 336 336 336 337 338 338 338 339 339 338 336 335 334 334 335 334 334 333 334 335 335 336 335 335 336 336 336 336 336 335 335 336 336 336 336 336 336 336 334 334 333 333 333
336 336 338 338 340 341 341 341 341 341 340 340 340 339 339 337 337 337 337 337 336 337 338 339 339 339 337 338 337 337 337 336 336 336 336 335 336 336 336 337 336 337 337 337 338 337 338 338 337 336 336 337 337 336 336 336 336 336 335 335 335 335
336 335 339 339 340 341 341 341 340 340 339 339 339 339 338 338 338 337 337 338 337 337 338 339 339 338 336 336 336 337 338 337 337 337 337 337 337 338 338 337 337 338 338 338 338 338 338 339 338 337 337 337 337 337 336 337 337 337 337 336 336 335
335 336 339 339 340 340 340 341 340 340 339 338 339 338 337 338 339 338 338 338 337 337 337 338 338 337 336 337 337 337 338 337 338 338 338 338 337 338 338 338 338 338 338 339 339 338 338 338 338 337 337 337 337 337 337 337 336 336 337 337 336 336
335 337 339 339 340 340 340 340 340 339 339 338 338 338 337 338 339 338 338 338 338 337 337 337 337 337 337 338 338 338 338 338 338 338 338 338 337 338 338 338 338 338 338 338 338 338 337 338 337 337 337 336 336 336 336 336 336 335 335 336 335 336
335 338 339 339 340 340 340 339 339 339 339 338 338 338 339 339 339 338 339 338 337 336 336 337 337 337 338 338 338 338 338 338 338 337 338 338 338 338 338 338 337 337 337 337 338 337 336 337 337 336 336 335 335 335 334 334 335 335 335 336 336 336
335 338 338 338 340 339 340 340 339 339 338 338 337 339 339 339 339 339 339 338 337 337 336 337 337 338 338 339 338 338 338 338 338 337 338 339 339 339 339 338 337 337 337 336 337 335 334 336 336 336 335 334 334 333 332 333 335 335 335 335 334 334
334 337 338 338 339 339 340 340 339 339 338 337 337 339 340 340 339 339 339 338 337 336 337 337 338 339 339 339 339 338 338 337 338 338 338 339 339 339 339 338 338 338 336 335 335 332 333 335 335 335 335 333 333 332 333 334 334 333 332 330 329 328
334 336 338 339 340 339 340 339 339 339 339 338 338 340 340 340 340 339 339 338 338 337 337 338 338 339 338 338 339 339 339 338 338 339 339 339 339 339 338 337 337 337 335 334 333 332 333 334 334 334 333 332 332 332 332 332 330 328 327 325 324 324
335 336 338 340 340 339 339 339 339 339 339 338 338 339 340 340 340 339 338 337 338 337 338 338 338 338 337 338 339 339 339 339 339 339 339 338 338 338 337 336 335 334 334 333 333 333 333 333 333 332 331 331 331 331 330 328 326 325 323 322 321 320
335 336 337 338 339 339 339 339 339 338 338 338 338 339 340 339 339 338 338 337 337 338 338 338 338 338 337 338 338 339 339 339 339 339 338 337 336 336 335 334 333 332 332 332 332 332 332 332 331 331 331 330 329 329 327 326 324 322 321 320 318 316
335 335 336 337 338 339 339 338 338 338 338 338 338 339 339 339 338 338 337 337 338 338 338 338 338 338 337 338 338 338 338 339 339 338 337 336 335 334 333 333 332 332 332 331 330 330 330 330 329 331 331 329 328 327 325 324 322 321 320 318 316 314
335 335 336 337 337 338 338 337 337 338 338 338 337 338 339 338 338 337 337 338 338 338 338 338 338 338 337 337 337 337 338 338 337 337 336 334 333 332 332 332 331 331 330 330 329 328 328 328 329 331 330 328 327 326 325 323 321 320 319 318 316 313
336 336 336 336 337 338 337 337 338 338 338 337 337 338 338 338 338 337 338 338 338 338 338 337 337 337 337 337 338 337 337 336 336 335 334 333 332 332 331 331 330 330 329 328 327 326 326 327 329 331 330 328 327 325 323 322 321 320 319 317 315 312
336 336 336 336 337 337 337 338 337 337 337 337 337 338 338 337 338 338 338 338 337 337 337 336 336 337 337 337 337 337 336 335 334 333 332 332 331 330 330 329 329 328 327 326 325 324 323 325 329 330 331 330 327 325 323 321 321 319 318 316 312 310
336 336 336 335 336 337 337 337 337 337 337 337 337 337 337 337 337 337 337 336 336 336 336 336 336 336 336 336 336 335 334 333 332 332 331 330 329 329 328 327 327 327 326 324 322 322 321 325 328 329 330 331 329 327 325 322 321 319 318 313 308 309
335 335 335 335 336 337 337 337 337 337 336 336 337 336 336 336 336 336 335 334 335 336 336 336 336 336 335 335 334 334 333 332 331 330 329 328 328 327 327 326 325 325 326 323 321 320 320 322 325 326 329 329 328 328 328 326 322 319 317 311 303 306
335 335 335 336 336 337 336 336 336 336 335 336 336 335 334 334 334 334 334 334 335 335 335 335 335 334 334 333 333 332 332 331 330 328 327 327 326 326 325 324 322 322 324 324 321 319 319 319 320 323 328 328 326 327 326 325 323 321 319 311 301 303
335 335 336 336 336 336 335 335 335 334 333 334 333 332 332 332 332 332 332 333 334 333 334 333 333 332 332 332 331 331 330 329 328 327 326 325 324 323 321 320 319 319 320 322 321 318 317 317 317 318 322 325 325 326 322 320 321 321 321 314 303 302
335 336 335 335 336 335 336 335 334 333 332 332 330 329 331 332 330 330 332 332 332 332 332 332 331 331 330 330 329 329 328 327 326 325 324 323 321 320 318 317 317 317 318 319 319 318 316 315 315 314 315 317 319 320 318 317 317 316 318 315 305 301
336 335 335 335 336 336 336 334 333 333 332 331 329 328 329 330 328 329 331 330 330 330 330 330 329 329 328 328 327 327 325 324 323 322 322 320 319 317 315 315 315 315 316 316 317 317 316 315 314 312 310 310 309 307 307 311 313 311 311 312 307 302
335 335 335 335 335 336 335 333 332 332 332 332 331 328 327 328 327 327 329 328 327 327 327 327 327 327 326 325 324 324 323 322 321 320 319 317 316 314 313 313 313 312 313 313 313 313 312 312 312 310 308 305 302 300 301 305 310 309 307 308 307 305
334 335 334 334 334 335 334 332 331 331 331 330 329 327 327 327 326 327 328 326 326 326 325 325 325 324 323 322 321 321 320 320 319 318 317 315 313 313 311 311 310 310 310 309 308 307 306 305 306 307 307 305 304 304 303 304 306 306 305 305 305 305
334 334 334 333 333 334 333 330 330 330 330 329 327 325 324 324 325 327 326 325 325 325 324 323 322 321 320 320 319 319 318 318 317 315 314 313 312 311 310 309 308 308 306 305 304 302 301 299 299 301 303 305 306 306 306 305 305 305 305 305 305 304
334 333 333 333 333 333 332 331 330 330 330 329 327 325 323 323 324 325 325 324 323 323 322 321 320 319 318 318 318 317 316 316 315 314 313 311 310 309 308 307 307 306 304 303 301 299 298 298 297 297 298 302 303 304 304 304 304 304 304 305 305 304
333 333 333 332 332 332 332 331 330 329 330 330 328 326 324 324 324 325 324 322 322 321 320 319 318 317 317 316 316 315 315 314 313 312 311 310 309 308 307 306 305 304 302 300 299 298 297 297 297 298 298 300 301 302 302 302 302 303 303 303 304 303
334 333 332 331 330 331 331 331 330 329 329 329 328 326 326 325 325 325 324 322 321 320 319 317 316 316 315 315 314 314 313 312 311 310 310 308 308 307 306 305 303 301 299 298 297 297 297 297 297 299 299 300 301 301 301 301 301 302 302 302 302 303
334 333 331 331 330 330 331 331 330 329 329 328 326 326 326 325 325 326 325 323 321 319 318 316 315 314 314 313 313 313 312 311 310 309 308 307 307 305 304 302 299 298 297 297 297 297 297 297 297 298 299 300 300 300 300 300 300 300 301 301 301 302
333 332 331 331 330 330 330 330 329 329 329 328 326 325 324 325 326 326 323 321 319 318 316 315 314 313 313 313 312 311 311 310 309 308 307 306 305 303 301 299 297 297 297 297 297 297 297 297 297 297 297 298 298 298 299 299 299 299 299 300 300 300
332 331 331 331 330 329 330 329 328 328 328 326 324 324 323 323 324 323 321 320 318 316 315 314 313 313 312 312 311 310 309 308 307 306 306 305 303 301 299 297 296 296 297 297 297 297 297 296 296 296 296 297 297 297 297 297 298 298 299 299 299 299
332 331 331 331 329 329 330 328 327 328 326 324 323 324 323 323 322 321 319 318 316 314 314 313 312 312 311 311 310 309 308 307 306 305 304 302 300 299 297 296 296 296 296 297 296 296 296 296 296 296 296 296 297 297 297 297 298 298 299 299 299 299